GFSWCAN_925_thetae_057.txt.gz
Theta_e
304 304 302 302 302 303 305 307 307 306 306 306 306 307 307 307 307 308 309 309 305 304 305 305 306 308 308 308 309 309 310 310 312 313 315 315 317 314 316 317 317 320 321 321 319 324 328 321 322 325 327 327 325 326
304 303 302 302 303 306 306 307 307 306 306 306 307 307 308 308 308 309 309 309 308 304 306 305 306 306 307 307 308 308 309 310 310 311 311 312 312 313 313 319 313 317 317 318 318 316 317 316 318 318 317 318 323 323
303 302 302 302 305 306 307 307 306 307 307 307 307 308 308 309 309 309 309 308 305 305 306 307 310 310 308 307 308 308 309 308 309 308 308 308 311 310 312 314 312 312 313 314 315 315 315 314 316 314 315 316 318 318
302 302 303 305 307 306 306 306 307 308 307 307 308 308 308 309 309 309 309 307 306 305 309 311 309 308 309 308 307 308 308 308 308 308 308 309 311 309 311 311 312 312 311 311 311 311 311 314 312 313 314 315 316 317
302 302 305 307 307 307 307 307 308 308 307 308 308 308 308 309 309 310 309 307 307 308 310 310 309 308 307 307 307 307 308 309 308 308 309 309 308 308 308 310 312 309 310 312 312 309 309 310 310 311 311 312 313 316
302 303 307 308 307 307 309 310 309 308 308 309 309 309 309 310 312 310 310 307 308 307 308 312 310 310 309 307 306 308 308 308 307 307 308 308 309 308 310 310 308 309 308 308 309 307 307 307 308 309 310 311 311 314
303 304 308 308 307 308 311 311 309 308 309 309 309 310 310 309 310 310 312 309 307 306 309 311 313 309 308 307 306 306 307 306 307 306 304 304 305 306 307 309 307 307 309 309 311 313 315 314 311 312 311 311 312 314
303 305 309 309 308 309 312 311 311 309 310 309 309 309 310 311 310 311 307 306 306 307 307 313 315 313 308 312 310 306 308 306 306 306 305 305 304 303 306 306 308 310 308 309 312 314 319 318 316 314 312 311 312 312
303 308 310 309 309 311 312 311 312 311 310 310 310 311 313 313 314 311 306 307 307 308 312 313 316 319 309 312 308 307 306 308 306 306 306 304 304 308 310 310 308 309 310 309 311 312 315 317 316 314 312 312 312 313
307 310 310 309 310 313 312 312 312 311 310 309 311 315 318 314 309 308 309 310 310 311 311 311 314 319 313 314 314 310 307 311 312 311 307 308 306 312 312 311 308 309 309 308 311 313 313 314 316 316 313 312 313 313
310 311 311 310 311 313 313 313 312 311 310 312 318 321 312 310 312 313 320 321 325 319 316 313 316 322 315 317 318 314 316 314 318 317 315 314 311 312 311 311 309 310 308 308 309 311 311 311 312 316 317 314 314 314
311 311 311 311 311 314 313 315 313 313 319 315 316 318 314 315 318 322 322 323 324 325 324 324 322 320 319 315 315 318 321 319 320 314 313 313 313 312 311 310 309 309 309 309 308 309 309 309 309 310 313 316 317 318
312 312 311 311 312 314 314 314 316 315 315 317 320 323 323 321 321 320 320 323 320 318 315 317 325 324 322 319 320 322 321 321 316 315 312 314 312 311 311 310 307 308 309 310 309 308 307 307 307 308 309 310 313 313
312 312 312 311 315 315 315 313 315 315 314 324 324 316 322 321 322 319 316 316 315 314 315 317 326 324 325 323 318 318 320 315 315 313 315 312 312 311 310 309 307 307 309 310 310 309 307 306 306 305 306 308 308 309
313 314 315 317 317 315 314 315 315 316 319 323 322 318 320 318 316 315 315 315 314 314 316 319 323 321 320 318 318 316 316 315 315 314 312 312 312 311 310 307 308 306 308 308 309 308 309 306 305 304 304 306 306 306
313 318 319 318 316 314 314 317 318 319 322 323 322 322 320 318 316 315 315 314 314 315 315 319 318 318 316 316 314 313 314 316 315 315 314 312 311 311 311 306 307 307 309 309 308 308 308 308 307 305 304 304 305 305
314 322 319 315 316 314 316 318 324 323 321 322 321 319 320 317 316 316 315 314 314 313 315 315 313 314 315 312 313 315 314 310 309 309 312 312 311 312 310 307 307 308 309 307 308 308 308 307 308 306 305 304 303 303
317 319 315 313 316 319 325 321 321 321 320 320 321 321 322 319 317 317 316 316 315 313 314 313 312 311 310 308 309 309 309 308 307 309 313 312 311 310 307 307 307 308 309 306 305 307 307 305 305 305 305 305 304 304
313 314 314 314 316 317 326 322 322 323 322 323 322 321 321 320 320 319 316 317 316 314 313 313 311 310 310 309 309 309 308 307 308 308 310 306 306 306 306 305 304 306 306 304 303 303 304 304 303 303 303 302 302 303
315 317 315 316 317 325 328 326 322 327 324 322 322 321 321 321 322 318 318 315 316 315 314 312 312 311 311 311 311 309 308 308 308 307 307 305 304 303 305 306 304 304 303 304 302 302 301 301 302 302 300 300 301 300
321 323 318 319 326 322 325 325 325 325 324 325 324 324 323 323 321 320 318 318 316 315 314 314 313 314 311 310 308 307 309 307 308 307 307 304 303 304 304 303 303 303 303 303 303 302 301 301 300 301 301 300 300 298
324 321 320 326 326 324 326 322 324 327 326 325 325 325 324 323 323 320 319 320 317 317 316 316 315 314 315 314 312 308 307 306 307 305 303 303 303 304 304 303 302 303 303 302 302 302 301 300 300 301 301 300 300 300
323 323 326 327 324 319 319 322 327 326 325 325 325 324 323 324 323 322 321 319 319 318 315 316 314 313 313 312 312 308 308 308 307 305 303 302 302 302 302 302 301 301 301 301 301 301 301 300 299 299 299 300 301 301
324 325 328 328 325 321 325 327 326 324 324 323 322 322 323 323 322 321 321 317 317 316 317 319 317 317 316 313 311 309 305 303 303 302 301 301 301 301 301 302 301 300 300 300 300 300 300 300 299 299 299 300 301 300
322 321 322 313 323 325 323 325 324 323 322 323 324 325 324 322 321 320 317 319 317 317 317 316 314 314 311 309 305 304 302 302 302 303 301 300 300 300 300 300 299 298 298 299 300 300 300 300 300 300 299 300 300 300
317 326 321 325 325 324 323 325 326 323 322 321 324 322 323 320 320 321 321 319 319 318 316 315 314 311 308 306 306 305 303 302 301 302 301 301 300 300 300 300 298 298 298 298 298 299 299 299 300 299 299 299 299 299
315 323 327 326 324 320 321 322 322 325 324 322 320 323 322 321 318 319 318 318 317 314 312 311 309 308 306 305 303 303 302 302 302 302 301 300 300 299 299 299 298 297 297 297 297 297 297 297 298 299 299 298 298 299
325 327 326 326 321 321 322 321 321 322 325 322 321 322 322 317 317 321 320 315 314 312 310 309 309 308 307 305 304 303 303 302 302 301 301 300 299 299 298 298 297 298 298 297 296 296 296 296 297 298 298 298 298 298
324 327 325 328 322 320 322 321 323 325 323 323 321 323 321 318 317 319 316 315 313 312 310 307 306 304 304 304 303 302 301 301 301 301 300 300 299 298 298 298 297 297 298 298 298 297 296 296 296 297 297 298 298 298
327 327 326 327 327 327 327 323 324 324 324 321 322 321 321 319 317 315 313 311 310 309 307 306 305 304 303 303 302 301 300 299 298 298 298 298 298 298 297 297 297 297 297 297 297 297 297 297 298 297 297 297 297 298
325 324 324 324 326 327 327 324 323 321 319 319 321 322 321 320 317 312 310 309 309 308 306 305 303 303 302 302 301 301 299 297 296 295 295 295 297 297 296 296 296 296 296 297 297 297 297 297 297 297 297 297 297 297
325 325 327 325 324 326 325 326 324 321 322 322 320 321 321 322 318 313 309 309 307 305 304 303 303 302 301 301 299 298 297 295 294 294 294 295 295 295 295 295 295 295 296 296 296 297 297 297 297 297 297 297 296 296
326 325 325 322 323 323 326 326 324 323 323 323 322 321 321 318 315 311 308 306 305 304 303 302 302 301 301 300 299 297 296 295 295 293 293 293 293 293 293 293 294 294 295 296 296 296 296 296 296 296 296 296 295 295

GFSWCAN_925_thetae_060.txt.gz
Theta_e
304 303 302 302 302 305 306 306 307 306 306 306 306 307 307 308 308 308 308 309 306 304 305 305 306 307 308 308 310 307 304 307 309 310 312 313 315 314 315 314 315 317 321 320 319 323 330 315 318 323 318 316 317 319
304 302 302 302 305 307 306 307 307 307 306 306 307 308 308 309 309 309 309 309 307 305 306 306 307 307 306 306 307 307 307 306 306 306 306 309 312 313 314 316 313 317 315 316 315 317 313 310 316 318 316 314 315 315
302 302 302 303 307 307 305 306 308 307 306 307 307 308 308 308 309 309 309 307 306 305 306 306 310 309 308 307 307 309 307 306 307 304 305 305 309 308 310 312 312 310 310 311 311 312 309 309 310 315 311 311 312 311
302 302 302 305 308 307 307 309 308 307 307 308 308 308 308 308 309 309 308 308 306 305 306 309 309 308 307 307 308 308 308 307 305 303 302 303 306 305 308 308 310 310 309 311 309 309 309 310 309 309 309 310 311 311
303 303 303 307 308 307 308 311 308 307 308 309 308 309 309 309 309 309 307 307 307 307 308 308 307 309 307 307 307 307 307 306 305 305 307 307 307 306 305 306 310 308 309 312 312 309 310 310 309 309 310 310 310 311
303 303 304 308 309 308 309 312 309 308 309 309 309 309 310 310 311 311 309 308 307 307 304 307 307 309 308 305 305 306 307 305 306 306 306 306 305 305 308 309 307 308 308 309 310 309 310 312 311 310 310 311 311 312
303 303 309 309 309 308 311 312 309 308 309 309 310 309 310 311 311 309 309 309 307 306 304 307 309 308 308 307 304 304 305 304 304 305 305 304 305 305 306 308 306 307 309 308 308 310 313 316 317 315 313 313 313 313
303 306 311 310 309 309 312 312 312 310 310 309 309 310 310 310 309 310 306 306 306 306 304 311 313 311 308 310 309 303 304 304 305 306 306 306 305 303 307 308 306 308 307 307 309 311 311 311 311 313 314 315 313 312
304 310 311 310 309 310 313 312 312 311 310 310 310 311 312 311 312 310 306 306 307 308 310 310 311 318 309 311 307 307 304 309 306 307 307 305 304 309 310 310 309 309 309 309 309 309 310 310 311 311 313 314 312 312
308 312 311 311 310 311 313 313 312 311 310 310 311 313 314 313 310 308 307 308 308 307 307 308 309 316 311 312 311 310 307 311 312 311 306 307 306 309 310 310 308 310 309 309 309 309 309 309 309 311 313 315 311 311
311 312 311 311 310 312 313 313 313 312 310 312 314 314 312 309 311 311 314 313 312 310 310 309 309 313 312 316 315 311 312 312 313 309 312 308 309 309 309 309 307 309 309 309 308 307 307 307 308 309 311 315 313 313
312 312 312 311 311 313 314 314 314 313 316 316 314 314 312 310 313 318 315 315 317 317 315 315 313 313 315 312 315 316 319 315 318 309 309 311 311 307 308 308 307 306 309 308 308 306 306 306 306 307 308 309 312 312
311 312 312 312 311 314 315 314 313 314 313 314 316 318 316 313 311 316 315 311 311 310 308 309 318 319 314 312 314 316 318 317 311 310 309 308 309 308 307 306 306 305 308 308 308 306 305 305 305 305 307 306 306 308
311 313 314 312 316 316 315 314 313 314 313 317 323 311 316 318 314 312 310 309 309 308 310 310 318 318 315 316 315 317 315 310 311 308 310 306 307 308 306 306 303 304 306 308 308 307 306 304 304 304 305 305 304 305
310 313 317 318 317 314 315 313 314 314 317 321 317 318 318 313 310 310 309 308 308 307 308 312 315 311 312 314 311 309 312 307 313 313 307 307 307 305 305 303 301 303 304 306 307 308 307 305 304 304 304 304 304 303
310 314 320 318 316 314 315 315 316 316 321 321 318 317 314 311 311 309 309 308 306 307 307 308 312 312 312 309 310 310 310 306 306 306 306 307 304 303 305 301 301 304 305 305 306 306 307 306 304 303 303 303 303 303
310 320 321 318 314 315 317 316 322 324 319 320 316 313 313 311 311 310 309 307 307 306 308 307 308 309 308 307 308 305 305 304 302 302 304 306 304 304 303 301 302 304 305 303 305 305 306 307 306 304 303 303 302 302
308 310 312 314 313 316 323 321 322 319 319 315 315 314 316 311 311 310 309 308 306 306 307 308 305 306 307 307 306 304 303 301 300 302 304 304 305 303 305 302 302 304 303 302 301 302 302 302 302 303 304 303 303 302
309 313 315 314 314 316 322 324 320 322 320 316 317 314 314 313 311 310 309 311 309 307 305 305 306 306 305 303 304 303 302 301 302 302 301 301 301 301 302 303 302 303 301 300 300 299 299 300 301 299 300 301 301 300
315 319 318 320 317 320 326 323 321 321 323 317 314 314 313 313 314 311 309 308 307 306 307 308 308 305 304 303 302 302 301 301 301 301 301 298 301 302 302 302 301 301 301 301 300 300 299 300 301 299 299 298 298 298
321 323 322 318 322 318 322 319 319 319 318 318 316 316 317 315 316 314 311 308 308 308 309 307 306 306 306 307 306 306 305 304 302 301 301 298 300 301 301 301 301 301 300 300 299 299 299 298 299 299 298 299 299 299
322 322 320 322 324 326 322 322 316 318 318 318 318 318 319 319 318 316 313 312 311 310 309 309 307 307 307 306 307 307 308 307 306 303 301 300 297 298 299 300 299 299 299 300 300 299 299 299 298 300 300 299 299 299
323 322 324 325 326 314 315 319 321 321 324 320 320 321 320 321 319 317 316 315 315 313 311 310 311 311 310 311 309 309 308 307 302 300 300 300 300 300 299 299 298 298 298 299 300 300 298 298 300 301 300 300 299 298
323 324 326 326 321 316 321 324 325 324 321 321 321 322 321 319 316 311 312 315 313 312 311 313 311 309 310 307 305 303 302 301 300 300 300 299 298 299 299 299 298 298 299 299 299 299 299 299 300 300 299 299 299 299
318 318 317 312 319 323 325 325 324 321 320 320 320 321 320 317 318 313 312 313 314 313 313 310 310 306 304 301 301 301 301 301 300 298 300 300 298 298 298 297 297 297 298 298 298 298 299 299 299 299 299 299 298 297
316 322 319 324 323 323 322 324 323 322 321 321 319 320 317 318 319 319 316 314 313 310 310 309 305 302 301 302 300 300 301 301 301 300 299 299 299 298 296 295 295 296 297 297 296 296 298 299 299 299 298 299 299 299
316 320 322 319 320 320 321 320 320 321 324 322 319 321 319 317 318 316 312 313 312 313 311 310 307 303 301 302 302 302 302 302 301 299 299 299 298 298 298 297 297 296 296 296 296 296 297 298 298 298 298 298 298 298
325 323 326 322 322 320 322 321 322 320 323 321 322 323 321 319 316 315 317 314 313 311 310 309 308 306 305 303 302 301 300 300 300 300 299 298 298 298 297 298 298 298 298 297 296 296 296 296 296 297 298 298 297 297
326 323 323 324 321 320 321 320 320 322 322 321 319 324 319 315 315 315 317 313 312 311 306 303 302 301 300 299 299 299 298 298 297 295 295 294 295 297 297 297 297 297 297 297 297 297 297 297 297 297 297 297 298 298
324 323 324 326 324 325 322 317 319 318 317 316 319 316 316 315 315 311 310 309 304 303 302 302 302 300 299 297 297 296 296 295 295 295 293 293 296 296 296 296 296 296 297 297 297 297 297 297 297 297 297 297 297 297
324 325 325 325 325 324 324 320 318 319 319 318 318 317 317 315 315 308 307 306 303 302 302 301 301 300 299 297 296 295 294 293 294 295 295 296 295 295 295 295 295 296 296 296 297 297 297 297 297 297 297 297 297 297
323 323 323 323 325 323 321 320 320 320 320 319 319 318 318 318 314 308 305 303 302 302 301 301 300 298 299 297 296 295 294 293 293 293 294 294 294 294 294 294 295 296 296 296 296 296 296 296 296 296 296 295 295 295
325 324 324 323 325 326 324 324 322 322 321 321 320 319 320 318 313 307 304 303 302 302 301 301 301 299 298 297 296 296 295 294 293 293 293 293 293 293 293 294 294 295 295 295 295 295 295 294 294 294 294 293 294 295

GFSWCAN_925_thetae_063.txt.gz
Theta_e
304 303 302 302 303 306 306 306 307 306 306 306 307 308 308 308 308 308 308 308 307 305 306 305 305 308 308 309 309 308 304 305 306 308 311 310 313 312 313 312 314 316 317 319 318 324 331 312 314 323 318 315 314 313
303 302 302 303 305 307 307 307 307 306 306 307 308 308 308 309 309 309 309 309 307 306 307 307 306 308 307 307 307 308 307 304 307 306 306 308 311 311 311 316 311 315 312 316 313 314 312 310 311 311 314 311 311 311
303 302 302 303 306 308 307 307 307 307 307 307 308 308 308 308 309 309 309 308 306 305 302 304 309 308 307 307 307 309 308 306 305 302 306 306 312 309 312 312 311 310 309 311 311 311 310 310 311 311 311 311 311 311
302 302 303 304 308 308 308 308 308 307 308 308 308 308 308 308 309 309 308 307 306 303 304 305 308 308 306 307 308 307 307 307 303 300 302 305 308 305 310 311 310 310 309 310 310 309 309 311 310 310 311 312 312 313
303 303 303 307 309 308 308 310 308 308 309 309 309 309 309 309 308 308 307 306 306 305 306 304 305 308 306 306 307 306 305 304 304 304 305 307 308 307 305 308 310 307 310 312 312 310 310 310 309 310 311 313 313 313
303 303 304 309 309 308 310 311 309 308 309 309 308 309 309 310 310 310 307 307 307 307 303 309 304 308 307 305 305 304 306 304 304 306 306 304 302 306 309 310 307 307 308 308 309 309 310 310 311 313 315 315 314 313
303 304 308 310 309 309 311 311 311 309 309 309 310 310 310 311 311 310 307 308 307 306 302 310 312 309 308 307 302 301 303 302 303 305 305 305 306 305 306 309 308 308 308 309 309 309 311 311 312 311 312 314 315 314
303 305 310 310 309 309 312 312 311 310 309 309 309 310 310 309 307 308 307 307 306 305 303 306 312 313 309 309 308 301 302 301 304 306 306 307 305 304 309 309 308 309 308 309 308 308 308 308 309 310 311 312 314 315
303 308 311 310 310 309 312 313 312 311 310 309 310 310 311 310 310 310 306 306 307 307 310 309 312 312 308 311 307 305 302 308 304 307 308 305 306 309 309 309 308 309 309 309 308 307 308 308 308 309 310 311 315 314
304 310 312 310 310 310 312 313 312 311 310 310 310 313 312 312 309 307 306 308 308 306 305 308 309 314 310 312 312 310 308 311 311 309 307 307 306 305 305 307 307 307 309 308 308 307 307 307 307 308 308 309 312 311
304 309 310 311 311 310 313 313 313 311 310 311 312 315 311 308 310 310 314 312 312 312 307 307 308 311 309 315 315 311 311 311 315 311 311 309 309 305 305 306 306 305 308 307 306 306 306 306 307 307 307 307 309 312
305 308 311 312 311 310 313 314 313 312 315 314 313 312 309 308 312 315 312 312 314 316 311 312 311 309 314 311 315 314 317 314 313 309 308 303 309 307 306 306 306 303 307 307 306 305 305 305 305 306 306 305 305 307
306 307 310 313 311 312 315 314 313 311 313 313 313 314 315 311 308 313 310 309 309 307 307 307 310 314 311 309 313 315 317 316 306 308 308 307 307 306 304 304 304 302 305 307 307 305 304 304 304 304 305 304 303 304
306 308 310 314 317 314 313 314 313 312 312 314 321 316 315 315 311 310 308 307 306 306 306 305 312 315 311 317 316 315 311 307 308 300 306 305 308 304 303 303 300 300 303 305 306 306 305 303 303 303 303 303 303 303
307 308 312 316 317 315 313 314 313 313 315 318 317 317 314 310 308 308 306 305 305 304 304 312 311 308 308 311 306 307 309 304 308 303 305 303 304 303 301 302 299 299 302 302 306 306 305 304 303 303 302 302 302 302
307 310 318 319 319 314 313 314 314 314 317 319 319 315 311 309 308 308 307 306 303 304 303 304 308 309 309 307 308 308 308 302 303 302 302 304 304 300 300 301 298 301 302 301 304 305 306 305 303 303 302 302 302 302
308 317 315 311 312 313 316 315 319 320 322 318 314 310 310 308 308 308 306 305 303 304 306 304 306 307 304 305 306 302 303 302 300 300 299 301 301 302 300 301 300 302 300 299 301 301 302 305 305 304 302 302 302 302
306 307 309 312 314 314 320 316 320 321 320 316 314 312 311 309 308 308 306 305 304 303 304 306 303 305 305 307 305 303 301 299 298 298 299 299 300 299 299 299 300 301 299 298 298 298 298 299 298 301 303 303 303 302
309 314 316 314 314 315 318 322 319 319 318 315 314 312 311 311 308 307 306 307 304 303 304 304 306 305 304 302 302 301 300 299 300 299 298 300 298 297 300 300 301 299 299 299 298 297 297 298 298 298 298 298 297 298
315 319 321 321 318 318 324 322 319 317 321 315 312 312 313 313 311 309 308 306 304 305 306 307 307 304 303 301 299 300 299 298 299 300 300 300 299 298 299 299 298 299 300 299 298 299 298 298 298 298 298 298 298 298
320 323 321 318 317 315 318 318 316 316 315 315 313 315 316 318 318 316 312 310 310 308 309 306 306 305 303 302 303 304 304 302 300 300 301 297 298 297 298 298 298 299 298 297 297 297 297 296 298 298 299 299 298 298
321 321 320 320 321 322 320 319 315 315 317 316 317 318 318 320 319 317 313 315 313 310 308 307 307 304 303 305 305 307 307 306 304 299 299 298 295 295 296 296 298 297 297 297 298 297 297 298 298 299 298 298 298 298
321 322 322 323 325 313 315 316 321 320 321 320 317 319 316 316 315 310 312 312 312 310 309 308 308 309 310 308 306 307 307 305 298 297 297 298 298 297 296 297 297 297 297 298 298 298 299 299 299 299 298 299 299 298
322 322 323 323 319 316 317 321 321 319 317 317 318 321 318 315 312 310 312 310 310 309 309 308 310 307 306 305 303 304 301 300 299 298 298 298 297 295 296 296 297 297 297 298 299 299 298 299 298 299 298 298 298 298
315 315 314 310 316 320 323 322 320 318 318 318 319 319 315 313 317 315 313 310 310 309 309 309 306 303 304 301 298 299 300 300 297 295 297 297 296 296 296 296 296 297 297 297 297 298 299 298 298 298 297 297 297 297
316 321 317 322 321 321 320 320 321 321 320 321 319 319 317 317 319 319 315 312 310 308 307 304 301 301 299 299 297 297 299 299 298 297 297 298 298 298 295 294 295 296 296 296 297 298 298 298 298 298 298 298 298 298
317 320 316 316 317 318 318 317 317 319 323 323 322 322 321 318 317 314 311 310 309 312 311 308 303 301 300 299 300 300 300 299 299 298 298 298 298 297 297 296 296 296 296 296 296 297 297 298 298 298 297 297 297 297
323 321 324 320 319 317 319 318 319 319 321 318 315 320 320 318 314 310 311 315 313 308 304 301 301 300 300 299 299 299 299 299 298 298 298 297 297 297 297 297 297 297 297 297 296 296 297 297 297 297 297 297 296 297
323 320 318 321 320 319 318 317 317 316 317 317 316 318 317 312 312 312 315 312 305 301 298 298 297 297 297 297 296 296 296 296 296 293 293 292 294 296 296 296 296 297 297 297 297 297 297 297 297 297 297 297 296 296
321 318 321 322 323 323 319 315 316 314 313 314 315 313 311 311 311 306 304 302 301 299 299 298 298 297 295 295 294 294 294 295 295 295 292 293 295 295 295 295 296 296 296 296 297 297 297 297 297 297 297 297 296 296
318 320 322 322 323 320 317 315 316 316 316 315 314 313 313 310 305 302 301 301 301 300 299 298 297 297 296 295 294 293 292 294 295 296 295 295 294 295 295 295 296 296 296 296 297 297 297 296 296 296 296 296 296 295
319 321 320 321 323 317 316 317 317 316 315 315 316 315 315 313 308 303 301 301 301 299 299 299 297 296 296 295 294 293 293 293 294 293 294 294 294 294 294 295 295 296 296 296 295 296 295 294 294 294 294 294 294 294
319 319 319 322 321 320 319 318 319 319 317 317 317 315 316 314 310 303 302 301 301 300 300 299 298 297 296 296 294 293 293 293 293 293 292 293 293 294 294 294 294 294 294 294 294 294 293 293 293 293 293 294 294 294

GFSWCAN_925_thetae_069.txt.gz
Theta_e
305 303 303 303 304 308 308 307 307 306 307 307 308 308 308 308 308 308 307 308 306 309 309 307 306 308 308 308 309 308 307 308 308 309 310 311 313 313 312 310 310 310 311 311 311 312 314 310 311 316 312 313 314 315
304 303 303 303 306 309 308 307 307 306 307 308 308 308 308 308 308 308 308 308 307 307 309 306 306 307 307 307 309 308 308 309 308 310 310 309 311 312 312 313 308 314 311 315 313 315 311 310 311 309 311 313 314 315
304 303 303 303 309 309 308 308 307 307 307 308 308 308 308 308 309 309 307 306 306 307 308 307 310 308 307 307 307 308 309 308 308 306 308 309 311 308 310 311 311 308 307 311 311 312 311 310 310 311 311 312 313 314
304 303 303 305 310 309 308 309 308 307 308 308 308 308 308 308 308 308 307 307 306 305 311 311 306 308 306 307 308 307 307 308 305 305 307 308 310 306 311 309 308 306 306 308 310 309 309 311 310 311 312 313 314 316
304 303 303 306 310 309 309 310 308 309 309 309 308 308 308 308 308 307 307 306 306 307 312 312 307 307 305 306 306 305 305 307 307 308 308 308 307 306 308 308 310 307 308 309 312 309 310 311 310 310 311 311 313 314
304 303 303 308 310 309 309 312 310 309 309 309 309 309 309 309 310 310 310 307 306 306 309 314 309 309 307 305 305 305 306 306 307 308 307 305 304 307 310 311 309 308 309 307 309 308 309 309 309 308 310 311 312 313
303 303 303 307 310 310 309 312 311 310 310 309 309 310 310 310 310 310 310 307 307 306 308 313 315 312 309 307 306 307 305 305 307 308 308 308 307 305 309 309 309 308 307 306 306 307 308 308 308 307 308 308 311 315
304 303 304 305 308 310 309 312 312 311 310 309 309 309 309 309 309 309 308 307 307 305 306 312 315 313 309 312 311 303 305 306 307 309 309 308 309 307 310 308 308 309 307 306 306 307 307 307 307 307 306 307 310 311
304 303 304 305 307 310 310 312 312 311 310 309 309 309 309 308 310 309 307 307 306 307 311 310 314 318 310 312 308 306 306 311 307 310 310 309 310 314 310 309 308 308 307 306 306 306 306 306 306 306 306 306 307 309
304 304 305 306 306 310 311 311 312 311 310 309 309 311 315 310 308 307 306 308 309 308 308 310 311 315 313 313 313 311 310 311 311 310 309 307 309 309 309 309 308 307 307 307 306 306 305 306 306 306 306 306 306 307
304 305 306 306 307 311 310 312 313 311 309 309 312 315 310 308 309 310 314 313 314 315 312 310 310 315 312 318 317 312 312 312 314 310 310 310 312 309 309 308 307 306 308 307 306 305 304 305 305 305 305 304 304 305
305 306 306 306 308 310 310 312 313 311 311 312 313 311 309 310 314 315 316 313 315 318 315 315 315 311 313 313 316 314 315 314 311 308 309 314 310 309 309 308 306 305 306 307 306 305 303 303 303 303 303 303 302 302
306 306 306 307 310 314 313 312 312 311 311 311 313 315 316 316 315 315 316 315 315 313 312 313 314 316 314 314 316 316 316 315 310 310 314 311 310 309 308 307 306 304 305 308 307 305 304 303 303 303 302 302 301 302
306 306 307 310 313 314 313 311 311 310 310 316 320 314 320 317 317 316 316 315 313 311 311 309 312 317 316 317 316 316 313 311 311 311 310 309 310 309 308 306 306 305 305 306 308 307 305 304 303 303 303 303 302 302
307 306 312 312 314 316 312 311 311 311 312 318 321 321 320 317 313 313 310 311 311 308 308 313 315 315 312 312 309 310 310 311 311 310 309 308 309 309 309 306 305 305 305 305 305 307 307 306 305 304 303 303 303 303
307 308 316 314 311 308 309 312 310 311 314 318 320 323 318 314 317 311 312 313 308 307 306 308 311 312 311 310 310 309 309 310 309 308 307 307 308 307 306 305 303 304 304 302 301 301 304 305 306 305 305 304 303 302
307 309 310 307 307 310 312 312 312 316 320 323 322 320 318 316 316 315 311 310 305 308 310 309 308 309 308 308 308 309 309 308 306 306 305 305 307 306 304 302 303 303 302 301 301 301 301 301 302 301 302 303 302 302
306 306 306 309 311 312 312 312 318 322 325 325 322 318 315 314 317 315 313 310 308 308 308 307 308 311 309 307 307 308 308 306 305 306 305 305 304 302 301 303 303 302 301 301 300 300 301 301 301 300 300 300 301 300
307 315 317 315 315 312 316 318 316 324 323 320 318 316 316 317 315 311 309 306 308 309 311 309 313 315 310 308 308 308 307 306 306 306 305 304 302 301 302 302 302 301 300 300 300 299 299 299 299 299 300 300 300 300
316 318 321 320 319 315 321 324 318 321 322 321 317 319 319 321 318 316 314 311 313 313 312 311 313 310 308 307 305 308 307 305 305 307 306 303 300 301 301 301 301 301 301 300 299 298 300 299 300 300 299 299 300 300
318 319 318 315 314 314 318 322 323 321 320 320 318 320 321 319 319 317 317 315 315 316 315 312 311 310 307 306 306 305 305 305 307 307 305 302 300 300 300 300 300 300 301 301 300 299 300 300 299 299 300 300 300 300
315 315 319 318 319 321 323 321 322 320 322 322 322 320 320 320 320 318 314 317 316 314 312 313 313 311 311 311 307 307 308 306 304 303 301 299 301 300 299 298 300 300 299 299 299 300 300 298 299 299 300 300 300 300
317 320 320 321 325 319 320 317 321 322 324 322 320 321 319 319 318 313 317 316 315 313 312 312 311 310 310 310 307 307 307 306 303 300 299 298 297 298 299 298 299 299 299 299 299 299 299 298 298 299 299 299 300 300
318 320 324 325 324 324 321 325 322 322 320 321 321 322 320 319 317 317 317 316 315 313 313 313 311 312 311 311 310 309 307 302 299 298 298 298 299 298 299 298 297 298 297 298 299 300 299 299 299 298 298 299 299 299
315 318 318 311 317 321 323 323 323 322 323 321 321 321 322 319 321 319 318 317 316 315 313 312 311 310 310 310 308 305 299 300 300 300 297 298 299 300 298 298 298 297 296 298 299 299 300 299 299 299 299 298 298 298
313 320 320 322 324 325 322 322 322 322 322 322 320 320 320 321 319 319 318 318 317 315 315 314 313 309 307 304 305 302 300 298 299 299 297 298 299 298 298 298 298 297 296 297 298 298 299 299 300 298 299 298 297 298
318 323 321 318 320 321 322 320 320 321 323 323 322 321 318 319 318 318 317 315 316 312 306 306 305 304 303 301 299 297 297 297 298 297 296 297 297 297 297 297 297 297 297 297 297 298 298 298 298 298 298 298 298 297
322 323 324 324 323 321 323 322 321 321 323 321 321 321 319 319 318 316 315 313 303 299 298 297 297 298 298 297 297 297 297 296 296 296 297 296 296 297 297 297 296 296 297 297 297 297 298 298 298 298 297 297 297 296
323 325 323 324 323 322 323 323 321 319 321 321 322 320 320 317 314 313 312 303 300 300 299 298 296 296 296 296 295 295 295 296 298 299 299 299 298 296 296 296 296 297 297 297 297 297 297 298 298 298 297 297 297 296
322 322 325 324 325 326 325 321 320 319 317 318 318 316 313 310 304 301 303 301 301 301 299 298 297 298 298 298 296 295 295 295 297 297 298 298 296 295 296 296 296 297 297 297 297 297 296 297 297 297 297 296 296 296
321 322 324 325 325 324 321 318 317 317 319 320 317 316 312 310 302 300 301 301 299 298 298 298 297 297 297 296 295 296 296 295 295 296 295 295 295 295 295 296 296 296 297 297 297 297 296 296 296 296 296 296 295 295
322 324 325 327 326 320 319 320 320 320 320 320 319 318 317 313 309 304 299 299 299 299 298 298 298 297 294 293 294 294 294 294 294 294 294 294 294 295 295 295 296 296 296 295 295 295 295 295 295 294 294 294 294 294
324 322 322 323 323 322 320 321 321 321 320 320 320 318 318 317 315 308 299 300 301 300 299 298 297 294 294 294 293 293 293 293 292 293 293 293 294 294 294 294 294 294 294 294 294 294 294 294 294 294 294 293 293 293

GFSWCAN_925_thetae_072.txt.gz
Theta_e
306 304 304 303 304 309 307 307 307 307 307 308 308 308 308 308 308 311 309 310 311 313 312 311 309 310 310 310 311 310 311 311 310 311 312 313 316 315 313 313 312 313 313 314 312 314 313 314 315 319 315 312 315 316
305 304 304 303 305 310 308 307 307 307 308 308 308 308 308 308 308 310 311 308 309 310 313 310 310 309 309 309 309 311 310 311 311 310 312 311 314 312 313 317 310 314 314 314 313 313 314 312 313 313 312 312 312 314
305 304 304 303 307 310 308 308 307 307 307 308 308 308 308 308 308 310 310 309 308 310 314 313 313 310 309 309 309 311 310 310 310 310 310 310 312 310 313 314 313 309 304 312 312 314 314 310 313 312 311 312 313 314
305 304 304 304 309 310 308 309 308 308 308 309 308 308 308 308 308 309 311 309 310 311 316 315 310 311 308 310 310 310 309 310 310 309 310 312 312 308 310 311 309 308 307 310 312 312 309 310 311 310 311 312 312 313
304 304 304 304 309 310 309 311 310 309 309 309 308 308 308 308 308 310 310 310 309 311 317 317 312 311 309 310 309 309 309 310 311 312 311 312 309 308 309 310 308 306 307 309 311 308 309 309 309 309 310 311 312 313
304 304 304 305 306 309 309 311 310 309 309 309 309 309 309 309 309 312 315 310 309 310 314 318 315 313 308 310 311 310 309 309 310 311 310 308 307 309 311 312 309 309 307 305 307 307 308 308 308 308 308 309 311 313
304 304 304 305 305 306 309 310 311 310 309 309 309 310 309 309 311 313 316 311 308 309 313 318 319 315 313 310 310 310 310 311 311 311 310 309 309 308 311 311 309 308 307 306 306 306 307 307 308 307 307 308 310 315
304 304 304 305 305 306 310 310 312 311 309 309 309 309 309 309 310 312 311 308 307 309 311 315 319 317 313 314 313 305 309 311 312 312 311 310 310 310 312 309 308 308 308 306 305 305 306 306 306 306 306 307 311 313
304 304 305 305 305 305 308 310 312 311 310 309 309 309 310 311 313 312 308 307 306 308 314 314 319 321 314 314 309 308 308 312 311 313 312 311 312 313 311 309 308 309 309 308 306 305 305 305 305 305 305 306 307 309
304 305 305 305 305 306 310 310 312 311 310 309 310 313 316 313 309 307 308 310 310 310 311 313 314 319 316 317 314 311 311 313 316 313 311 313 312 309 307 308 309 309 309 308 307 307 305 305 305 304 304 304 305 306
305 305 305 306 306 307 311 310 312 310 309 312 317 319 313 309 310 312 315 316 317 317 316 315 316 318 316 319 319 314 313 314 316 313 312 313 314 309 307 307 308 309 308 308 308 307 306 305 305 304 303 303 303 303
305 306 306 306 306 309 310 310 312 310 315 316 316 314 312 312 315 319 321 319 320 319 320 318 318 315 317 316 319 316 316 315 314 311 311 316 310 308 308 307 307 308 308 307 307 307 306 305 304 304 303 303 302 302
306 306 306 307 310 311 313 312 312 312 312 314 317 318 319 322 321 321 321 318 318 317 316 316 316 317 316 316 318 318 318 316 313 313 314 311 310 308 308 307 307 307 307 306 306 306 306 306 305 305 304 304 303 302
306 306 306 310 312 312 312 309 311 310 313 320 323 320 325 322 321 319 320 319 317 316 315 314 314 318 317 319 318 317 315 313 312 315 311 309 311 309 308 307 306 307 306 306 305 305 305 305 305 305 304 304 304 304
307 307 307 311 313 314 311 308 311 310 316 322 324 323 323 320 319 319 318 315 317 312 314 313 320 321 316 314 312 312 312 313 313 312 309 309 309 308 307 306 306 306 306 305 304 304 304 304 304 304 304 303 303 304
307 307 314 314 310 307 308 310 309 314 318 322 323 325 321 322 321 321 320 320 311 313 312 311 313 313 312 312 311 311 310 311 309 309 308 309 308 307 307 307 306 306 304 304 304 304 303 303 303 303 303 303 303 303
307 312 308 307 306 310 311 315 316 319 323 325 324 322 323 322 322 321 317 316 311 313 312 311 311 311 312 310 309 310 312 310 308 309 308 308 308 308 307 306 306 306 305 304 303 303 303 303 302 302 303 303 303 303
309 309 307 307 309 311 313 315 320 324 326 324 325 324 322 321 321 320 316 313 311 311 311 311 312 313 314 312 312 312 310 309 309 308 308 308 308 306 306 306 306 305 304 304 303 302 302 302 302 302 302 302 302 302
307 309 314 314 312 314 320 321 320 325 325 324 323 323 321 321 318 314 314 313 312 312 312 313 315 316 314 313 312 311 310 309 308 307 308 307 305 305 305 305 304 303 303 303 302 302 302 302 302 302 301 302 302 302
312 318 319 319 316 319 322 325 324 328 327 325 323 325 323 323 320 318 315 315 316 316 317 316 316 315 312 313 309 310 309 308 307 306 306 305 302 303 304 303 303 303 303 302 302 300 301 301 301 301 301 302 302 301
318 319 316 315 316 318 322 324 326 325 324 324 324 325 324 322 321 321 319 317 317 317 316 315 314 313 312 312 311 310 309 307 307 306 305 304 302 302 302 302 302 302 302 301 301 301 300 301 301 301 301 301 301 301
317 313 320 318 323 326 328 327 327 326 326 325 325 323 322 322 322 321 318 318 316 315 315 314 313 312 311 310 310 311 311 310 309 304 301 301 304 303 302 302 302 301 301 301 301 301 301 301 301 301 301 301 300 300
316 320 323 324 328 325 325 322 326 326 326 325 324 324 322 322 321 318 318 317 314 313 313 313 314 315 314 313 313 312 311 310 307 304 303 302 302 302 302 301 300 300 301 300 300 300 301 299 300 301 301 301 301 301
318 323 327 328 329 325 325 327 326 326 325 323 323 323 323 321 320 318 317 316 312 312 312 315 312 310 310 312 310 309 310 309 306 304 302 302 302 302 301 300 299 299 299 299 300 301 301 301 300 300 300 300 300 300
320 323 322 319 321 325 325 325 325 324 324 324 322 322 322 321 321 318 317 315 314 313 312 312 312 312 311 309 308 307 305 304 304 304 302 302 302 301 300 299 299 298 298 299 299 300 300 300 301 300 300 299 299 299
313 323 327 324 327 327 325 325 324 324 324 324 323 322 320 321 319 318 316 315 313 313 313 314 314 311 309 306 306 305 303 302 303 302 301 301 300 299 299 298 298 298 298 298 299 300 301 301 300 301 299 299 298 299
318 323 326 325 326 326 327 326 324 324 325 325 324 324 319 319 318 318 318 317 316 314 309 308 307 306 305 304 302 302 301 301 301 300 300 299 299 298 297 298 298 298 298 298 298 299 300 300 300 300 299 299 298 298
323 324 326 327 327 327 327 327 326 324 325 325 323 323 318 316 317 318 318 317 310 307 304 303 303 303 302 302 301 301 300 300 300 299 299 299 298 297 297 297 297 296 297 297 298 298 299 299 299 299 299 298 298 298
324 325 325 327 327 328 328 327 325 323 324 324 324 321 320 319 318 317 315 310 307 306 305 303 302 301 301 300 299 298 298 300 300 301 301 300 299 297 297 298 298 298 298 298 297 297 299 299 299 298 298 298 298 298
323 325 328 327 328 328 328 326 325 323 323 323 322 320 319 316 311 310 310 308 307 306 304 303 302 302 301 301 299 298 298 298 299 300 300 299 297 297 298 298 298 298 298 298 298 298 297 298 298 298 298 297 297 297
324 324 326 327 327 328 327 323 322 322 323 323 322 322 319 314 308 307 309 308 306 304 303 302 302 301 301 299 299 299 298 298 298 297 297 297 297 297 297 297 298 298 298 298 298 297 297 297 297 297 297 296 296 296
324 325 326 328 329 326 324 325 325 325 324 324 324 321 319 316 315 309 306 305 305 305 303 302 302 300 298 297 298 297 297 297 297 297 296 296 297 297 297 297 297 297 297 297 297 297 296 296 296 296 296 296 296 296
328 327 327 327 328 328 326 326 326 326 324 325 324 323 322 321 320 313 304 305 305 305 303 302 300 298 298 297 297 296 296 296 294 294 294 295 295 296 296 296 296 296 296 296 296 296 296 296 296 296 296 296 296 295

GFSWCAN_925_thetae_075.txt.gz
Theta_e
310 306 304 304 303 306 309 308 307 307 308 308 308 308 308 308 310 313 313 313 314 317 315 314 312 312 311 313 314 314 314 313 312 313 316 315 316 315 315 315 315 315 318 320 318 316 315 315 316 317 320 319 317 317
310 305 304 304 304 307 309 309 308 307 308 308 308 308 308 308 308 312 315 312 312 315 316 313 313 311 311 311 313 313 313 313 312 313 314 314 314 314 314 318 312 316 313 316 316 315 313 315 315 315 315 316 315 316
309 305 304 304 304 308 309 309 308 308 308 308 308 308 308 308 308 311 315 313 313 317 316 316 316 312 312 311 311 313 313 312 313 312 312 314 314 312 315 313 312 312 309 312 313 312 314 314 314 314 313 313 313 314
309 305 304 304 304 307 309 310 309 309 308 308 309 308 308 308 308 311 315 314 314 316 318 318 314 314 312 312 312 311 311 311 312 312 312 314 314 312 312 312 311 310 308 311 312 312 311 312 310 310 310 311 312 312
310 305 304 304 305 305 308 310 311 309 310 309 309 308 308 308 309 310 314 314 314 315 320 318 316 315 313 313 312 312 312 312 312 315 313 313 311 310 310 311 311 306 306 309 310 306 306 307 308 308 309 310 311 312
309 304 304 304 304 305 307 309 312 310 309 310 309 309 309 309 309 313 318 315 314 314 317 320 318 316 313 313 313 312 312 312 312 311 311 310 310 311 313 312 310 308 306 306 307 306 306 306 307 307 307 308 309 310
306 304 304 304 305 305 306 309 311 311 310 309 309 309 309 309 311 314 316 313 311 313 315 320 319 318 315 314 312 311 312 313 312 313 312 311 312 310 312 313 310 309 307 307 306 306 306 305 306 305 305 307 308 310
304 304 304 304 305 306 306 308 310 312 310 310 309 309 309 310 310 313 314 310 309 312 314 319 320 320 316 316 315 307 311 311 314 314 313 311 314 312 313 311 309 310 309 308 307 306 306 304 304 303 303 304 307 309
304 304 304 304 305 306 306 308 310 312 310 309 309 309 311 311 315 315 311 309 310 312 316 317 324 319 318 317 312 309 309 314 313 316 315 313 314 312 313 310 309 309 309 309 306 306 306 306 303 302 302 303 304 307
304 304 305 305 306 306 306 310 310 312 310 309 310 313 317 316 312 310 311 314 313 314 313 317 319 317 319 319 316 314 311 315 318 316 313 316 316 312 309 309 309 308 308 308 308 307 306 306 304 303 302 303 303 304
304 305 305 306 306 306 306 310 311 310 310 314 319 320 314 311 312 313 317 319 320 319 319 319 319 317 317 321 321 316 317 316 318 317 314 315 315 310 309 308 308 308 307 307 307 307 306 306 306 305 304 302 302 303
304 305 306 306 306 307 308 310 312 312 319 318 319 317 314 314 317 321 324 323 323 322 322 322 318 318 317 318 320 319 317 317 317 313 313 316 314 310 310 309 307 309 308 307 307 307 306 306 306 306 306 304 302 302
305 306 306 306 309 309 312 312 312 314 314 318 318 319 320 324 323 324 322 322 323 322 318 317 319 319 320 318 319 318 318 318 314 315 317 314 312 311 310 309 308 308 307 307 306 306 305 305 306 306 305 306 304 303
306 306 307 307 311 311 311 310 310 311 314 323 324 325 326 325 323 324 322 326 322 320 318 317 318 323 318 317 317 318 317 313 314 316 314 314 313 311 308 309 308 308 308 307 306 306 305 305 305 305 305 304 305 306
306 307 307 309 311 312 310 308 310 312 319 324 324 328 324 323 323 324 322 324 321 318 314 316 320 316 316 316 314 313 312 314 315 314 312 313 312 309 308 308 308 308 307 306 305 305 305 305 304 305 304 304 304 305
307 310 315 313 312 310 309 309 309 316 321 324 324 324 322 325 323 323 321 321 317 317 317 315 316 315 315 314 313 312 313 314 315 312 312 311 311 310 309 308 308 307 306 306 305 305 305 304 304 304 304 304 304 304
309 316 312 307 308 311 311 315 319 322 324 325 325 323 324 324 323 324 321 320 317 316 317 315 315 315 314 314 314 314 315 313 311 311 311 311 310 309 308 307 307 306 307 306 305 305 304 304 304 304 305 305 304 305
312 313 310 308 311 311 315 316 322 324 326 326 326 324 324 323 321 319 318 317 317 317 316 316 315 317 316 316 317 315 312 311 311 310 310 310 309 307 306 306 305 306 306 306 305 305 304 303 304 304 304 304 304 304
308 309 308 313 312 318 322 324 322 326 325 328 324 326 325 324 320 318 318 317 316 315 316 316 317 317 317 317 313 311 311 310 308 309 311 308 306 305 305 305 305 305 305 305 303 303 304 304 304 303 303 304 303 303
313 316 318 318 314 322 324 325 326 328 328 326 326 326 325 322 320 318 317 317 317 318 317 315 315 315 313 311 311 312 310 309 308 308 308 308 305 305 305 304 304 304 304 304 304 301 303 303 303 303 302 303 303 303
318 319 315 316 316 321 323 325 326 326 324 329 327 327 324 321 321 320 319 318 315 314 314 313 313 313 312 310 309 308 310 307 308 307 306 305 304 305 304 304 304 303 303 303 303 303 303 303 303 303 303 303 303 302
319 315 322 321 324 327 328 327 327 326 327 325 324 324 323 322 321 319 318 316 315 314 313 313 312 312 312 311 310 309 310 309 309 307 303 303 305 304 304 304 302 303 303 303 303 303 303 302 302 303 303 303 302 301
317 320 325 326 328 329 328 325 327 325 325 324 323 323 321 321 321 319 317 315 314 312 311 311 311 312 313 312 313 312 312 309 309 307 306 304 304 304 303 302 302 302 302 302 302 302 303 300 302 301 303 303 302 302
319 324 327 328 329 328 327 327 324 324 324 322 321 322 321 321 320 317 316 315 313 313 314 313 312 313 312 313 311 310 309 306 307 306 305 304 304 303 301 301 300 300 300 301 301 301 302 301 301 302 301 302 302 302
323 323 325 320 325 327 325 324 323 323 323 323 322 321 321 320 319 317 316 315 314 313 313 313 312 313 312 311 308 308 306 304 305 306 304 304 303 302 301 301 300 299 299 300 300 301 301 302 301 301 302 302 301 301
319 322 328 325 326 326 324 323 323 323 323 324 324 323 321 320 317 316 316 316 315 314 314 314 313 311 310 307 306 305 304 304 304 304 303 302 301 301 301 301 300 299 299 300 301 301 302 302 302 301 300 299 299 301
320 323 326 327 327 326 326 325 324 324 324 325 324 325 321 318 318 318 317 316 315 313 312 309 307 307 307 305 304 303 303 302 303 302 301 301 300 300 300 301 300 300 299 300 300 301 301 301 300 301 301 300 300 300
323 325 327 327 327 326 327 327 325 325 324 325 324 325 322 320 320 319 319 315 312 310 308 306 305 305 304 304 303 303 302 302 302 301 301 300 300 300 300 298 298 297 298 299 299 300 300 301 301 301 300 300 300 299
324 324 326 327 328 328 329 327 325 323 323 324 325 325 323 322 320 319 316 313 310 308 307 306 305 304 303 302 301 301 302 303 303 303 303 303 301 300 300 300 300 300 299 298 297 299 299 299 299 300 299 299 299 299
323 324 326 326 327 328 329 325 325 326 326 325 325 324 322 320 318 317 314 312 311 310 307 306 305 305 304 303 302 301 301 301 302 302 303 302 300 300 300 300 300 300 300 299 299 299 298 299 299 299 298 298 298 298
325 326 327 327 326 328 327 327 326 326 326 326 325 325 324 321 315 313 313 312 312 309 307 305 305 304 304 303 302 302 302 301 300 300 299 299 300 300 300 300 300 300 299 299 299 299 299 298 298 298 298 298 298 298
326 327 326 326 330 331 328 328 328 328 327 328 328 326 324 321 320 315 313 312 311 310 307 305 305 303 301 301 302 301 300 300 299 299 299 299 299 299 299 299 299 299 299 299 299 299 299 299 298 298 298 298 297 297
326 326 326 326 326 330 329 328 329 328 328 328 328 327 326 325 324 318 312 311 310 310 308 306 304 302 301 301 300 299 300 299 298 297 297 298 298 298 298 299 299 298 298 298 299 299 299 299 299 298 298 298 297 298

GFSWCAN_925_thetae_078.txt.gz
Theta_e
323 317 307 304 304 304 307 309 308 308 309 309 309 309 308 308 311 313 315 316 317 320 318 316 314 315 315 315 316 315 316 315 314 316 316 317 318 316 316 315 314 315 318 319 319 318 317 316 316 316 320 317 317 317
322 316 307 304 304 304 308 309 309 309 309 308 309 309 308 308 309 312 319 316 315 318 318 316 315 314 313 313 315 314 314 314 313 314 315 317 316 315 314 316 313 316 313 312 314 318 315 314 315 315 316 316 317 317
321 314 307 304 304 304 306 309 310 309 309 308 309 309 308 308 308 310 316 317 317 319 319 318 318 315 314 313 313 315 314 313 314 313 313 315 317 315 316 316 313 312 310 311 311 310 310 310 312 313 311 312 313 313
320 313 306 304 304 304 306 308 310 310 310 309 309 309 308 308 308 309 315 317 317 318 320 319 316 316 314 313 313 313 313 313 312 313 313 316 315 313 314 313 313 311 310 310 310 310 308 309 307 309 309 309 310 311
320 313 306 304 304 304 306 307 310 311 310 310 309 309 309 309 309 311 314 316 317 317 322 320 318 317 315 314 314 313 313 314 313 317 315 314 311 311 311 313 311 309 310 310 311 307 306 305 306 306 308 308 308 309
319 312 304 304 304 305 306 306 308 311 310 310 310 309 309 309 310 315 319 317 315 316 319 320 319 319 316 316 314 314 314 314 313 313 314 312 311 311 314 314 312 311 307 307 308 306 306 306 305 305 305 305 306 308
317 308 304 304 305 305 306 306 306 310 311 310 310 310 309 309 311 316 319 316 313 313 317 321 322 319 317 316 316 315 313 314 314 315 315 312 313 311 314 315 312 312 309 308 307 308 307 306 305 304 302 303 304 307
314 305 304 304 305 305 306 306 306 309 311 310 310 310 310 310 310 314 315 313 312 314 315 322 321 322 318 318 318 313 314 312 314 317 315 314 316 315 317 311 311 312 311 310 308 308 308 306 304 303 301 302 304 305
309 304 304 304 305 305 306 306 308 310 311 310 310 309 311 311 315 317 314 312 311 314 318 319 324 318 319 319 315 312 311 314 313 319 318 315 318 312 313 312 311 309 311 311 308 307 307 307 306 304 303 303 303 303
306 304 304 305 305 306 306 306 310 311 311 310 310 315 318 317 315 313 312 314 314 314 314 318 320 322 321 321 316 315 312 315 319 318 315 318 318 314 313 311 311 310 310 309 310 310 308 307 307 305 305 303 303 304
305 304 305 305 305 306 307 306 310 311 310 313 319 321 318 314 315 315 317 318 319 319 318 320 321 320 318 323 322 317 317 317 320 318 317 318 318 314 311 310 310 310 310 309 309 309 308 308 308 307 305 303 302 303
305 305 305 306 306 307 308 308 311 311 320 318 317 318 318 316 318 320 325 326 325 324 321 322 320 320 319 320 323 318 316 317 318 314 315 318 317 312 311 310 309 310 309 309 308 308 307 308 307 307 306 304 303 303
305 305 306 306 306 309 309 310 311 315 315 318 319 320 321 323 324 325 324 325 320 321 322 320 320 318 318 315 318 317 317 317 317 316 320 316 316 312 311 310 309 309 309 308 307 307 306 307 307 306 307 305 305 305
305 306 307 307 309 312 311 310 311 311 312 323 325 326 327 327 323 321 325 325 323 322 320 319 320 318 317 317 318 319 318 317 317 318 316 318 314 312 310 310 309 310 309 308 307 307 307 307 307 306 306 306 306 305
306 307 308 308 311 312 312 310 309 311 318 324 325 327 324 323 323 325 326 325 320 318 318 319 320 317 318 319 318 314 314 315 316 318 312 317 313 311 310 309 308 309 309 309 306 306 306 306 306 306 306 306 306 305
307 310 315 312 312 312 310 308 310 315 321 324 324 326 327 326 326 323 322 320 318 317 318 317 316 317 317 315 315 316 314 316 316 315 314 313 313 311 312 309 309 308 308 308 307 307 306 306 306 306 306 306 305 306
309 318 313 310 309 312 311 315 318 322 324 325 325 326 326 325 322 320 319 318 317 317 316 316 317 317 316 316 315 317 315 312 312 311 312 313 311 310 308 307 308 308 309 306 307 307 306 305 306 306 307 307 306 306
314 313 311 310 314 314 316 316 324 324 327 323 325 322 324 324 321 320 318 318 317 316 316 317 316 317 318 317 316 314 313 311 312 312 313 313 310 308 306 306 306 307 307 307 306 306 306 305 305 305 306 306 306 305
308 307 307 308 313 317 325 325 323 327 329 326 323 324 325 322 321 319 319 318 318 316 316 316 316 317 317 316 312 312 311 310 310 312 313 310 309 307 307 307 308 306 307 307 305 306 305 305 305 304 305 305 305 305
311 316 317 317 312 321 326 326 326 328 328 328 326 325 323 322 322 319 318 319 318 316 315 313 314 314 313 313 312 311 312 311 310 309 309 309 307 306 307 307 306 305 306 304 303 305 304 305 304 303 303 304 304 304
317 320 315 315 315 321 325 329 329 328 327 328 326 325 322 321 323 320 320 317 315 314 314 314 313 315 313 311 310 310 311 311 310 311 308 307 306 306 306 306 305 303 305 304 305 304 305 304 302 304 304 303 304 303
320 317 321 320 325 326 328 327 327 325 327 326 326 325 323 322 321 318 319 315 315 314 314 314 312 312 314 314 313 312 312 310 311 309 307 306 307 306 305 303 303 304 304 303 303 303 302 302 303 303 304 304 303 301
316 318 324 326 328 328 326 325 327 325 326 323 324 322 320 321 319 320 320 316 315 314 313 313 313 314 315 315 315 314 314 313 311 309 308 306 306 304 302 302 302 302 302 303 303 303 303 302 303 303 301 303 303 303
319 322 327 328 329 327 327 330 325 324 324 322 322 321 321 320 319 318 317 317 315 314 316 317 313 315 316 316 314 312 309 306 306 308 306 305 304 303 302 301 300 300 301 301 302 302 301 302 302 303 302 303 303 302
320 321 323 319 327 328 325 325 324 324 324 323 322 321 321 321 321 317 316 315 315 314 315 314 313 314 312 311 308 308 306 305 306 307 305 304 303 303 302 302 300 300 300 302 302 302 302 303 303 304 303 302 302 302
321 322 324 326 326 326 325 323 324 324 324 324 324 324 321 320 319 318 317 317 315 315 314 313 312 310 310 308 307 306 305 304 306 305 304 303 302 302 303 302 301 301 301 302 303 303 303 303 302 302 302 301 300 302
320 323 325 326 329 325 324 324 324 324 324 325 326 325 323 321 320 320 319 318 316 314 312 310 308 308 308 307 306 305 304 304 304 303 302 302 301 301 301 302 302 301 301 301 302 302 302 302 302 302 302 302 301 301
324 324 327 326 325 326 327 327 325 326 326 326 324 327 325 321 322 321 321 317 313 311 309 307 307 306 306 305 305 305 304 303 303 303 302 301 301 301 300 299 298 298 299 300 301 301 301 302 302 302 301 301 300 300
324 323 325 329 326 328 327 326 327 325 324 323 326 325 324 324 323 322 318 315 312 310 309 308 306 306 305 304 303 303 304 304 305 305 305 304 303 302 302 301 301 301 300 298 298 299 298 299 299 300 300 300 300 299
321 321 324 326 326 327 327 324 324 326 324 324 324 325 325 323 321 320 318 315 314 312 310 308 307 307 306 306 304 304 303 303 304 304 305 304 302 302 302 302 301 301 300 301 300 299 299 300 300 300 300 300 299 299
321 323 326 326 328 329 327 324 323 324 325 325 326 324 324 323 319 318 317 316 315 313 310 307 306 306 305 305 305 304 304 303 302 301 301 301 302 301 301 301 302 301 301 300 300 300 300 300 300 300 300 299 299 299
325 325 325 326 329 326 323 326 325 325 326 327 326 325 325 324 323 318 316 316 315 313 309 308 306 305 304 304 304 303 303 302 301 301 301 302 301 301 301 301 301 301 301 300 301 300 300 300 300 300 299 299 298 298
325 326 326 326 325 323 324 323 328 326 326 325 324 325 325 324 325 320 316 316 315 313 311 309 306 304 304 303 303 302 302 300 299 299 299 300 300 300 300 301 300 300 300 300 301 301 301 301 300 300 300 299 299 299

GFSWCAN_925_thetae_084.txt.gz
Theta_e
324 324 323 322 318 309 305 306 308 311 310 309 309 309 308 308 312 315 318 316 316 313 313 313 312 313 312 309 311 310 310 309 307 310 310 306 305 307 301 307 310 309 307 304 307 314 315 308 311 314 312 311 311 311
324 324 322 321 316 308 305 306 308 310 311 310 309 309 308 308 309 310 318 317 318 315 314 318 316 315 313 312 308 308 310 308 306 308 309 307 308 305 306 310 310 311 308 305 307 307 307 306 307 305 304 305 306 306
324 324 322 320 313 306 305 306 307 308 311 310 309 309 308 308 308 309 311 315 316 312 312 314 314 316 314 313 313 310 308 308 309 306 306 308 311 306 305 305 310 311 307 304 306 306 306 305 304 304 304 303 304 304
324 323 321 319 313 305 305 305 306 307 311 310 310 309 308 309 309 310 311 312 314 314 314 314 316 315 315 313 313 313 311 310 309 306 307 309 309 307 308 307 305 306 305 305 304 304 304 305 303 303 305 303 303 303
324 322 321 317 311 304 305 305 306 306 308 311 310 310 309 310 311 312 314 315 315 316 314 313 315 315 315 313 313 313 311 308 309 309 309 313 308 307 304 306 301 304 303 302 303 303 302 301 302 303 304 303 303 302
324 322 320 317 308 304 305 305 306 306 306 310 310 310 310 310 311 315 314 314 314 315 312 314 313 314 314 313 313 312 311 310 310 310 310 310 309 307 305 304 306 305 303 301 303 302 302 302 302 304 303 303 304 303
324 323 320 315 305 304 305 305 306 306 306 309 310 310 310 310 311 313 313 316 315 314 315 316 313 313 313 313 313 313 313 311 311 310 310 309 310 305 304 304 307 306 305 304 303 305 305 304 305 304 303 304 303 303
323 321 319 312 304 304 305 305 306 306 308 310 310 310 310 310 310 313 315 315 314 314 314 317 315 317 316 315 316 312 313 311 311 312 313 313 309 308 310 308 308 308 306 306 305 304 304 304 304 304 304 305 303 303
321 321 318 307 304 304 305 305 306 307 309 310 310 310 311 311 312 315 313 313 313 313 316 315 318 318 315 314 313 312 312 313 312 314 315 313 311 310 311 308 308 309 309 308 307 306 306 305 305 305 304 304 302 303
321 319 312 304 304 304 305 305 306 308 311 310 311 313 312 315 315 314 312 312 312 312 312 314 313 316 315 316 315 309 307 307 309 313 315 315 313 312 308 306 306 307 307 307 309 308 307 306 305 304 304 303 303 303
319 316 307 304 305 305 305 305 306 310 310 312 313 316 316 315 314 314 316 315 314 314 310 310 311 313 316 317 314 308 305 309 315 313 313 315 313 313 310 310 308 307 307 307 306 306 306 305 305 305 304 305 304 303
318 309 304 305 305 306 305 307 307 310 314 316 315 315 315 315 316 318 321 319 318 319 315 316 315 313 313 309 309 308 311 313 317 312 314 313 312 310 310 309 309 308 309 309 308 308 307 307 306 306 305 304 304 303
310 305 304 305 306 306 310 309 308 312 314 314 315 319 318 318 318 322 318 322 319 316 318 317 317 313 311 309 314 314 316 314 311 311 311 311 309 311 311 310 308 308 308 308 308 307 307 307 307 306 306 305 305 303
305 305 305 306 307 309 311 309 310 312 311 316 322 318 324 322 321 317 317 317 315 316 316 313 314 313 312 314 316 318 315 314 314 307 312 306 308 310 309 305 307 308 307 306 306 307 307 306 306 306 306 305 304 303
305 306 307 310 309 310 310 310 311 310 314 319 322 326 326 322 319 317 317 318 319 314 315 314 314 312 313 315 315 311 316 312 312 309 309 307 306 307 308 307 306 306 305 306 306 307 307 306 306 305 306 305 304 303
307 311 312 311 311 312 311 310 310 312 317 320 322 325 321 321 321 322 319 317 311 314 313 311 313 313 314 312 315 314 313 311 310 309 309 307 307 307 306 305 307 307 306 306 306 304 306 307 306 305 306 305 304 304
314 317 311 311 313 310 309 312 312 315 320 325 324 321 323 319 321 318 312 312 312 309 311 311 314 316 311 313 313 312 312 311 309 308 306 306 305 305 303 304 306 307 306 306 306 306 306 305 305 305 304 305 305 305
314 311 310 308 310 311 313 314 318 324 326 321 321 319 319 319 320 315 314 313 314 312 311 314 311 313 314 314 311 310 307 308 308 307 306 305 304 305 304 304 305 305 305 305 305 304 304 305 305 304 305 305 305 305
306 306 305 305 310 315 320 318 318 326 325 319 319 317 318 320 316 315 314 314 315 314 311 311 313 313 311 309 309 308 308 307 307 307 305 307 306 305 304 304 303 303 303 304 303 304 304 304 303 305 305 305 304 305
313 313 315 313 308 313 322 324 323 324 324 325 322 323 319 316 316 315 314 314 314 312 310 312 310 307 306 306 305 307 307 306 305 305 304 304 306 305 305 305 305 305 303 304 304 304 303 304 304 304 304 304 304 304
313 320 317 314 311 311 318 324 325 323 326 324 322 320 319 317 317 317 316 313 309 309 311 308 309 307 309 309 311 312 310 308 306 306 306 303 305 305 305 305 303 303 302 303 302 303 303 302 303 303 304 302 303 304
316 320 318 315 317 322 319 323 322 323 325 323 322 321 319 318 317 316 314 313 310 309 309 307 306 309 310 311 311 311 312 312 309 308 307 305 301 300 299 303 302 301 301 302 301 302 302 302 303 304 304 302 302 302
314 315 317 321 324 320 318 326 328 323 326 325 325 325 323 319 317 315 317 313 311 310 310 309 310 312 311 315 315 313 313 313 310 309 307 305 303 301 301 302 301 302 301 302 302 302 303 302 302 303 303 302 302 301
314 316 322 326 323 320 325 328 326 326 323 325 324 323 321 318 318 318 319 315 312 311 310 310 312 313 314 314 310 307 307 309 309 308 306 305 300 299 300 300 301 302 302 302 302 302 302 302 302 301 301 302 302 301
316 315 316 311 321 328 329 329 328 328 327 325 324 320 321 317 320 320 317 313 313 311 311 313 313 309 309 306 303 304 306 303 301 299 302 303 301 300 301 301 302 302 303 302 302 302 302 302 303 303 302 302 301 301
314 318 318 325 324 326 327 328 328 327 327 328 328 325 321 323 324 321 316 312 311 312 309 306 305 303 302 303 301 302 304 302 302 301 301 302 301 300 299 298 300 302 302 303 302 303 302 302 301 301 302 302 301 301
315 322 321 319 322 326 327 326 327 325 325 327 324 327 324 325 323 319 316 313 310 311 309 308 306 304 303 303 304 303 302 302 302 301 301 301 301 301 301 300 301 302 302 302 302 302 302 302 302 301 301 300 300 301
318 321 324 322 324 326 327 328 326 327 328 324 325 327 325 324 322 319 314 312 308 307 306 307 306 305 305 304 304 303 302 302 302 301 301 300 300 300 300 300 299 300 301 301 301 302 302 301 300 301 301 300 299 299
319 319 320 322 324 326 326 327 327 325 324 326 329 327 326 322 319 313 311 310 307 306 305 305 304 305 305 304 304 304 304 302 302 299 299 297 298 299 299 299 299 299 300 298 299 299 299 299 299 299 300 300 299 298
316 315 318 320 322 327 325 322 324 321 320 322 323 321 323 322 318 313 309 308 307 306 306 306 305 304 302 303 303 303 304 304 304 303 300 299 300 300 300 300 299 299 300 300 299 299 300 300 300 300 299 299 299 298
316 315 318 320 325 323 324 322 322 320 319 320 321 323 325 323 322 316 312 311 310 310 307 306 306 305 303 303 303 302 301 302 302 303 302 302 302 302 301 301 301 300 300 300 301 300 300 299 299 299 298 298 298 298
317 319 318 326 326 325 323 325 324 324 324 325 325 324 323 321 323 320 318 315 310 307 307 306 305 304 304 304 304 303 303 302 302 302 302 302 302 301 301 301 301 301 300 300 301 300 300 299 299 299 298 298 298 298
319 324 326 328 327 327 325 322 323 324 325 326 325 324 324 324 326 321 318 317 316 310 308 306 304 304 304 304 304 302 301 301 302 302 302 302 301 301 301 301 301 301 301 300 301 300 300 300 299 299 299 299 299 299

GFSWCAN_925_thetae_087.txt.gz
Theta_e
322 323 324 323 322 316 306 305 307 308 311 310 309 309 308 308 314 316 316 317 315 311 312 311 310 311 310 307 310 309 309 308 305 309 309 303 304 306 298 301 308 306 304 303 305 314 315 308 309 310 309 307 307 306
322 322 323 322 321 313 305 305 306 308 311 310 310 309 308 308 309 310 317 316 316 313 313 316 315 314 314 311 307 305 307 306 304 307 306 304 305 302 303 304 308 307 305 304 305 306 306 306 305 305 303 302 303 303
321 322 323 322 320 312 305 305 305 307 310 311 310 309 308 308 308 309 311 314 315 309 311 312 314 317 315 313 313 309 305 306 306 303 304 306 309 303 304 303 308 309 305 303 306 304 306 304 304 303 303 302 302 301
322 323 323 321 319 312 305 305 305 306 307 311 311 310 310 309 310 310 311 312 314 310 312 312 315 314 314 314 312 312 309 307 305 303 305 306 306 305 304 304 304 305 304 304 303 303 304 303 303 302 302 303 302 302
322 323 322 321 318 310 305 305 305 305 306 309 311 311 310 310 310 311 315 314 314 313 312 311 313 315 315 313 312 312 310 306 306 308 307 309 306 306 302 305 299 303 303 303 304 302 303 302 302 301 302 302 302 302
321 322 322 320 317 309 305 305 305 305 306 306 310 311 310 310 311 314 312 313 313 313 311 313 310 312 314 313 311 309 309 308 308 308 308 308 307 306 305 305 304 303 301 301 303 300 300 301 301 302 302 302 302 303
321 322 319 320 315 306 305 305 305 305 306 307 310 310 310 310 311 311 312 315 315 313 314 313 311 310 312 311 312 313 312 311 312 310 308 308 308 307 305 307 306 304 304 302 301 303 305 303 304 303 303 304 304 305
321 322 320 320 312 305 305 305 305 306 308 309 310 309 310 310 310 313 313 314 314 314 312 316 315 314 314 315 315 311 313 312 312 313 313 313 310 309 311 308 306 307 305 305 303 302 304 303 303 302 304 304 303 305
322 319 319 318 307 305 305 305 305 306 309 310 310 310 311 311 311 314 313 313 313 313 315 314 314 313 311 312 313 312 310 312 309 309 311 313 312 312 311 309 308 307 307 308 307 304 304 303 304 303 303 303 302 304
318 318 319 313 305 304 305 305 305 306 310 310 311 312 312 314 314 314 312 311 311 311 312 314 308 315 311 313 314 309 304 306 309 310 312 313 313 311 311 309 307 306 308 307 308 308 306 305 304 304 303 302 302 303
316 318 316 307 304 305 305 305 305 307 310 311 312 312 315 314 314 313 314 313 313 312 306 308 308 314 314 317 312 307 307 308 315 313 311 311 313 312 310 310 306 305 306 305 306 305 304 304 304 303 303 304 304 303
318 317 309 305 305 305 305 305 305 308 311 314 315 314 314 312 314 318 320 318 317 315 311 313 313 312 313 307 309 306 312 312 316 309 313 310 307 307 307 310 309 306 306 308 307 307 307 306 305 304 304 304 303 304
316 308 305 305 305 305 305 307 307 309 315 313 313 318 316 316 314 320 318 317 316 313 313 313 313 311 308 306 311 312 315 311 308 308 310 306 306 306 307 307 309 308 308 308 307 307 307 306 306 305 305 305 304 304
306 305 305 306 305 305 309 308 310 312 310 314 320 318 324 321 318 315 315 317 314 313 313 310 310 312 308 312 313 317 311 310 312 305 310 305 304 305 306 306 306 305 306 307 307 307 307 306 306 305 306 305 304 302
305 306 307 309 308 309 310 309 311 310 313 317 320 322 324 320 316 315 314 314 314 312 312 311 310 310 311 314 311 309 314 312 308 306 306 304 304 303 304 305 304 305 304 304 304 304 306 306 305 305 305 305 303 302
307 312 310 310 310 310 309 310 310 311 314 316 319 323 318 320 318 319 316 316 310 311 311 308 312 310 313 310 313 313 311 309 308 306 305 304 304 304 303 303 302 304 304 304 305 304 304 305 305 304 305 304 304 302
315 315 310 311 312 310 309 311 310 312 316 322 321 317 322 317 317 316 309 308 307 306 309 308 313 314 309 311 312 309 310 308 309 308 306 304 303 302 302 304 304 305 306 305 304 304 304 305 305 304 304 305 304 304
313 311 310 308 309 310 310 313 315 320 323 319 318 315 316 315 317 315 311 309 310 309 308 312 308 312 312 313 309 307 305 304 305 304 304 303 303 303 304 304 304 304 304 304 304 304 303 303 303 303 304 305 304 304
306 306 305 304 307 314 317 316 314 323 322 317 317 314 314 315 316 312 310 310 311 309 308 309 311 310 309 306 307 306 305 303 304 304 303 304 304 304 304 303 303 302 303 302 301 303 303 302 303 304 304 304 303 304
312 314 312 309 306 312 318 320 319 320 322 321 319 318 315 315 313 313 311 310 310 308 308 310 309 307 306 304 303 304 304 302 302 302 303 302 304 303 303 303 303 302 302 302 302 302 302 303 303 303 304 303 303 303
310 317 315 310 308 310 313 318 320 320 321 319 320 318 318 314 314 314 313 309 307 307 309 306 306 304 303 305 306 307 306 304 303 302 302 301 303 303 303 303 302 301 300 300 301 302 303 301 302 303 302 302 303 302
311 318 316 312 314 316 314 317 319 319 321 320 319 317 317 317 315 313 311 312 309 307 305 305 304 305 306 306 309 309 310 308 307 306 305 304 300 298 300 303 301 299 300 300 301 301 302 302 303 303 302 301 301 298
312 315 315 317 320 317 318 321 325 322 325 322 320 322 320 317 315 311 314 311 309 306 306 305 306 307 308 310 311 311 311 310 305 305 305 303 301 301 301 302 300 300 300 301 301 302 302 302 302 303 302 299 298 298
312 314 317 322 321 318 320 325 323 324 322 324 323 324 321 318 315 315 316 313 311 307 307 306 308 310 310 310 307 303 304 308 308 307 304 300 297 298 300 301 301 301 301 302 302 302 302 302 301 301 301 301 300 299
313 313 314 310 318 325 328 327 326 325 329 324 324 321 320 315 318 318 318 312 310 308 307 308 309 309 309 303 300 302 303 303 301 298 301 300 298 297 299 300 301 301 302 302 302 301 301 302 302 302 301 301 300 300
313 315 315 321 322 324 325 327 327 327 326 327 325 322 318 319 322 321 314 310 309 309 309 307 305 302 299 300 298 300 300 301 302 300 300 299 300 300 299 298 299 301 302 302 302 302 302 301 301 301 301 301 300 300
313 319 317 314 317 320 323 322 324 324 325 326 322 325 322 322 323 317 312 309 308 309 310 310 307 302 300 301 303 302 301 301 301 301 301 300 301 301 302 300 300 301 302 302 302 302 301 301 301 301 301 301 300 300
316 316 321 318 320 319 323 324 325 326 324 322 325 327 326 325 321 317 313 311 309 308 307 307 306 305 304 303 303 301 301 301 300 300 300 300 300 300 301 301 301 302 302 302 302 302 301 300 300 300 300 299 298 299
315 315 316 319 319 320 324 326 325 323 322 322 327 326 324 320 318 316 310 307 306 306 303 302 303 304 304 303 302 302 301 301 299 297 297 295 296 299 299 299 300 300 300 300 300 300 299 299 300 300 299 298 298 298
311 311 314 315 318 320 321 319 320 318 318 319 320 319 320 319 317 312 308 305 304 303 304 304 304 303 302 302 301 301 301 301 301 300 297 296 298 300 299 299 299 298 297 297 298 299 299 300 300 299 299 298 298 298
310 311 312 312 314 317 319 319 321 320 318 317 318 320 321 320 320 313 308 306 305 304 303 302 302 303 303 302 301 301 300 302 302 301 302 302 301 300 300 300 300 299 299 299 299 299 299 299 298 298 298 298 298 298
311 313 314 318 321 321 321 322 323 321 320 321 322 320 319 318 320 318 319 316 310 306 305 304 303 302 303 303 303 303 303 302 303 303 303 302 302 301 301 301 300 300 300 299 299 300 300 299 298 298 298 298 298 298
316 321 323 323 323 324 322 321 322 322 322 322 322 321 322 321 323 319 318 308 310 311 307 305 305 306 305 303 302 303 302 302 302 302 302 301 301 301 301 301 301 300 300 300 300 300 299 299 299 299 299 299 299 299

GFSWCAN_925_thetae_093.txt.gz
Theta_e
315 319 319 319 319 321 321 315 305 306 306 310 310 309 308 308 310 316 315 315 316 319 317 311 311 312 311 312 316 313 313 312 312 314 315 317 318 315 313 312 313 315 317 319 317 318 315 312 312 318 316 314 312 308
314 319 319 320 320 321 320 315 305 306 306 309 310 309 308 308 310 309 315 313 314 317 316 313 312 311 311 311 313 309 313 313 313 313 312 313 315 311 315 318 309 317 314 319 316 314 311 311 310 310 309 310 308 307
313 316 319 319 320 321 320 313 305 305 305 307 310 310 309 310 311 311 311 312 313 316 316 315 316 313 314 313 312 316 311 310 310 309 311 313 316 313 317 316 314 312 308 314 312 311 311 311 309 309 308 307 306 306
316 316 319 319 319 321 320 312 305 305 305 305 308 311 310 310 310 312 313 313 313 313 318 316 312 315 313 313 311 311 311 307 307 309 312 313 314 310 315 312 315 312 311 313 312 310 308 309 310 310 308 306 306 305
310 315 319 319 319 320 319 310 304 305 305 305 306 310 310 310 310 314 313 313 313 315 318 318 313 312 311 310 310 309 309 311 310 312 313 314 310 310 309 310 313 311 314 317 317 313 313 310 310 309 309 308 306 306
309 310 315 319 320 320 318 308 304 305 305 305 306 309 310 310 311 314 316 313 313 312 316 319 313 314 312 311 310 311 312 312 311 313 313 313 309 311 315 315 312 310 310 312 312 310 309 308 307 307 308 307 305 305
309 308 309 317 319 319 317 306 304 305 305 308 307 310 310 310 311 313 316 313 312 312 317 318 317 314 314 313 314 315 313 313 313 313 313 312 311 311 312 315 311 309 310 309 307 307 308 307 309 307 306 306 306 306
309 308 309 314 317 317 314 304 305 306 307 308 310 310 310 310 312 314 313 313 313 314 315 318 317 318 313 317 317 310 315 313 310 311 311 311 311 310 311 313 313 312 311 308 307 307 309 309 308 308 307 307 308 309
309 308 309 314 315 316 307 304 305 306 309 310 311 311 312 313 315 314 313 313 313 314 318 316 319 319 315 315 313 310 309 312 307 312 311 309 309 309 311 311 313 313 311 311 309 308 307 307 309 309 308 309 309 309
309 309 311 313 314 313 304 305 305 306 310 311 312 314 318 314 314 313 313 314 314 312 313 315 312 318 317 318 313 313 310 312 314 313 311 313 314 313 313 312 312 312 312 310 311 311 310 310 311 311 310 310 309 308
309 311 313 313 314 305 304 305 305 306 310 312 314 318 314 313 314 314 317 316 316 317 313 313 314 318 314 317 314 311 312 311 314 313 314 311 313 314 312 311 311 312 310 309 310 311 310 311 311 311 310 308 308 307
312 313 313 313 305 304 304 304 305 306 310 313 314 314 314 315 316 319 321 317 319 320 315 317 317 315 315 311 313 311 314 313 313 311 312 315 315 312 312 311 310 309 309 310 309 310 310 309 309 308 309 308 307 306
313 314 312 305 304 304 304 304 305 307 314 312 314 319 317 316 316 320 320 321 322 319 317 316 318 317 314 313 313 314 313 315 312 314 312 314 314 311 311 310 310 310 309 309 310 310 310 309 309 308 308 307 306 306
305 304 304 304 304 304 304 305 306 312 311 318 321 318 321 323 322 321 322 322 319 317 318 317 316 318 314 316 316 316 315 313 316 315 312 315 313 311 309 309 309 310 309 309 309 309 309 309 309 308 307 307 306 305
305 306 307 307 306 305 307 307 311 310 312 318 321 323 325 323 320 319 318 318 317 317 317 316 316 316 317 317 315 314 315 316 315 313 314 313 311 310 310 309 308 309 309 308 308 307 307 307 307 307 307 307 305 304
310 310 309 309 309 309 312 310 309 310 313 316 318 323 322 323 323 321 321 320 316 316 314 314 317 316 317 316 317 315 314 314 313 314 314 312 311 310 310 309 307 307 307 307 307 306 306 306 306 306 306 307 306 304
314 310 310 309 309 310 309 308 309 312 315 320 324 322 323 322 323 320 317 316 313 318 315 314 315 313 313 315 315 315 315 311 312 312 312 312 312 311 309 307 306 305 305 305 305 305 305 305 305 305 306 306 306 305
310 310 310 307 310 309 308 310 314 318 321 322 325 324 321 322 320 320 319 311 316 314 313 315 313 314 315 313 313 313 313 312 311 311 312 311 310 309 307 307 305 304 304 304 304 304 304 304 304 305 305 305 306 305
306 306 308 307 309 312 314 314 313 322 323 324 321 319 320 321 320 319 317 312 312 312 313 314 315 315 314 314 313 313 312 312 312 311 311 309 309 309 307 306 304 304 303 303 304 304 304 304 305 302 305 306 306 306
308 309 309 306 304 310 317 319 315 320 326 326 321 321 321 320 319 319 320 315 314 315 316 317 317 316 314 313 312 313 313 312 311 311 311 310 308 307 306 306 304 303 303 304 304 304 304 304 304 303 304 304 305 305
308 311 309 307 305 307 313 319 323 324 325 326 320 322 324 320 322 321 320 315 316 319 320 318 317 315 311 310 309 310 310 308 310 311 311 310 308 307 306 304 303 303 303 304 304 304 304 303 303 302 303 303 302 302
308 313 311 307 311 312 313 314 319 321 324 325 324 323 325 325 324 322 315 318 319 320 317 317 314 313 311 310 309 308 309 308 308 306 304 305 308 307 306 304 302 303 303 303 303 303 304 304 304 303 302 299 298 298
308 313 314 313 318 318 319 319 325 326 329 328 323 326 326 325 321 314 321 320 319 316 313 311 311 310 312 309 309 308 309 309 309 308 307 306 306 305 303 303 302 302 303 303 302 303 303 302 302 302 299 299 299 299
308 313 317 320 319 320 322 325 325 328 325 327 327 328 327 326 318 320 321 320 318 313 310 311 310 312 311 311 312 311 310 310 310 307 306 304 304 303 302 302 302 302 302 302 303 303 303 303 302 301 300 300 301 301
314 314 315 310 318 324 328 329 329 328 329 328 328 329 325 320 323 322 322 322 318 316 312 310 312 314 315 312 306 305 304 308 309 310 304 304 301 300 301 301 301 301 301 303 303 303 303 303 303 303 302 301 302 300
310 313 316 321 321 325 327 329 329 329 328 329 328 326 324 324 324 324 323 319 316 315 313 312 313 313 308 306 305 304 304 304 303 304 303 300 301 302 302 303 303 302 301 302 303 303 302 302 302 302 302 301 298 299
312 315 316 315 318 320 323 323 324 327 328 329 328 327 327 326 325 323 320 316 315 313 311 311 311 310 305 302 301 300 301 301 302 302 301 299 299 300 302 302 302 302 302 302 302 302 302 302 302 302 302 301 301 300
317 316 319 320 321 321 324 324 325 328 328 325 325 328 327 325 325 323 321 313 308 307 306 306 305 304 303 302 301 300 300 300 299 299 299 299 299 300 300 301 301 301 302 302 302 302 302 302 301 301 301 300 300 299
316 317 317 318 318 319 322 324 326 328 325 325 327 327 327 323 323 322 318 307 305 305 304 303 303 303 303 301 300 300 300 300 301 303 303 302 301 301 300 301 301 302 302 302 301 301 299 300 301 301 300 299 299 299
317 315 317 316 316 316 320 323 326 323 322 322 323 324 325 324 321 312 306 305 307 308 308 308 302 303 303 301 301 300 300 301 302 303 303 303 302 300 299 299 300 301 300 300 300 299 298 299 299 299 299 299 299 299
312 313 315 314 315 317 318 321 321 322 321 321 321 324 325 324 319 308 306 306 312 313 308 303 303 303 303 303 302 302 302 301 300 300 301 302 301 300 299 299 300 299 299 298 299 299 300 300 300 300 299 299 299 298
315 315 316 317 318 322 324 325 325 324 323 324 325 324 323 323 323 319 310 306 306 310 314 308 308 309 306 304 303 303 302 303 302 300 300 300 301 300 300 299 299 298 298 298 299 300 300 300 300 299 299 299 299 299
316 315 315 318 325 326 325 324 324 325 325 326 325 323 324 324 324 321 316 308 307 310 314 312 309 305 304 304 306 306 303 302 302 302 302 301 301 301 300 300 300 299 299 300 300 300 300 300 300 300 300 300 300 299

GFSWCAN_925_thetae_096.txt.gz
Theta_e
316 316 316 319 319 320 320 318 311 305 306 309 311 309 308 308 309 317 318 316 319 319 319 316 316 316 316 315 316 317 316 316 316 317 317 319 321 321 321 320 318 321 321 323 320 320 319 316 316 318 321 320 318 316
316 317 316 318 319 320 320 318 310 305 306 307 311 310 309 310 311 310 317 314 315 319 320 317 316 314 314 315 315 316 318 316 316 316 316 318 320 319 319 323 315 321 318 322 318 319 317 315 316 317 316 316 314 313
312 313 316 318 317 319 320 318 310 305 306 306 309 310 310 311 312 313 315 316 317 318 319 318 318 317 316 315 315 318 317 316 316 316 315 315 318 318 322 321 318 315 315 315 316 314 314 315 314 313 312 312 311 311
311 311 313 316 318 319 319 318 310 305 306 305 306 310 311 311 312 314 317 316 318 318 319 319 316 317 315 316 316 316 316 313 314 314 315 315 316 315 316 317 320 317 316 316 315 314 313 315 314 314 312 311 310 309
311 310 310 312 317 318 317 317 308 305 305 305 305 308 311 311 312 315 316 316 316 319 320 319 317 316 315 315 315 315 316 315 315 315 314 316 315 314 314 314 317 316 318 319 317 313 315 314 314 313 313 312 310 310
310 310 310 309 314 317 316 316 307 305 305 305 307 308 310 311 311 316 320 316 316 316 320 320 317 318 316 315 315 316 315 315 316 318 318 316 314 314 317 318 315 314 313 314 314 313 313 313 312 311 312 311 310 309
311 310 310 309 311 315 316 314 305 305 305 307 307 310 310 310 313 316 319 316 314 315 320 320 320 318 317 317 317 317 315 313 314 313 313 313 313 313 312 317 314 312 313 313 312 313 313 312 311 310 309 309 307 308
310 310 309 309 312 315 317 308 305 305 307 308 309 310 310 311 313 317 315 314 315 317 318 321 319 320 317 319 319 316 318 315 314 312 312 313 311 310 313 313 314 314 313 313 313 312 313 312 310 310 309 309 310 310
309 309 309 310 313 315 314 304 305 306 309 310 311 312 314 315 319 317 314 314 316 318 321 320 321 320 317 318 317 316 314 316 313 315 314 312 311 313 315 316 314 313 313 313 312 313 312 312 311 311 311 311 311 311
309 308 310 313 314 315 305 305 305 307 310 312 314 318 321 318 314 314 316 318 317 317 318 321 318 319 318 318 317 317 315 315 316 316 314 316 315 315 315 315 315 313 314 314 314 314 312 312 312 312 312 312 312 311
309 311 313 314 315 311 304 305 305 308 311 315 319 321 317 314 317 319 321 321 321 322 320 319 319 320 318 317 316 315 315 314 315 315 315 315 317 314 314 314 315 315 314 313 313 311 312 312 312 312 312 312 311 311
313 313 314 314 312 304 304 305 305 309 313 317 318 317 317 319 320 322 323 322 323 321 320 321 320 318 319 315 314 313 314 314 315 313 314 318 314 313 313 314 312 312 312 312 311 311 311 311 311 312 311 310 311 310
314 314 311 305 304 304 304 305 305 307 314 315 319 321 320 320 322 322 319 320 320 322 321 321 321 320 317 317 316 314 314 315 315 315 316 314 314 313 314 313 313 312 312 311 311 311 311 310 310 310 310 310 310 310
304 304 304 304 304 304 304 304 305 311 313 320 323 323 325 326 325 322 320 320 322 320 321 321 321 320 318 317 317 317 316 316 317 318 313 313 314 314 314 313 312 312 311 311 310 310 309 310 309 309 309 309 309 309
307 307 307 306 305 305 305 305 308 311 316 320 324 329 328 325 324 323 322 321 320 320 320 321 321 320 319 319 318 317 317 317 316 315 312 313 314 314 312 312 311 311 310 309 307 307 308 308 308 308 309 309 309 308
311 310 309 309 309 308 308 309 310 311 316 317 321 326 326 326 323 322 319 317 319 319 320 319 318 318 317 316 317 315 313 312 312 312 312 314 315 313 312 311 310 307 306 305 304 305 305 305 306 306 307 308 308 307
312 312 309 308 309 310 309 311 313 316 316 322 327 325 325 326 322 319 317 317 318 320 317 316 315 313 314 313 314 314 313 312 312 312 313 313 314 313 312 310 308 306 305 305 305 305 305 305 305 305 306 307 307 307
311 310 309 308 309 309 311 312 316 319 323 325 327 325 326 326 323 320 320 318 319 318 317 318 317 317 315 314 314 312 312 312 313 313 313 316 314 312 311 310 307 306 305 305 305 305 305 305 306 307 307 307 306 307
307 309 308 308 310 313 316 317 316 323 326 328 327 326 324 323 322 322 321 320 318 318 318 318 319 318 317 316 316 313 313 312 312 314 314 315 314 312 311 308 307 305 305 306 305 306 306 306 305 305 305 305 307 308
307 308 308 308 306 313 320 322 319 324 329 329 327 327 325 323 322 322 323 322 320 319 320 320 320 319 319 318 316 313 312 312 313 313 313 313 312 311 310 307 304 304 305 305 305 305 306 306 304 304 306 307 307 306
309 312 309 308 308 309 316 322 324 325 329 330 327 326 326 326 326 324 323 323 323 321 322 321 321 321 320 317 314 313 315 314 314 314 313 312 311 309 308 306 304 303 304 305 305 305 305 305 304 304 305 304 304 303
310 312 311 308 314 316 318 318 321 325 328 329 328 328 329 329 328 327 325 324 324 325 324 324 323 322 321 318 315 314 314 315 314 310 309 310 311 309 307 305 304 304 304 304 304 305 305 305 305 305 303 302 302 302
307 312 317 317 319 321 321 322 327 327 330 330 329 329 329 329 328 322 325 325 325 324 323 321 320 319 318 315 313 312 313 313 313 313 312 311 309 308 306 304 304 303 304 304 304 304 305 303 303 304 303 302 302 302
309 316 320 321 322 322 324 328 328 330 329 329 328 328 328 329 326 326 327 325 324 322 319 319 316 316 315 314 314 313 313 313 314 313 311 310 309 308 305 304 304 303 303 303 304 304 304 304 303 303 303 303 303 302
316 317 317 313 322 325 328 329 329 327 327 326 327 327 329 326 327 326 326 325 323 322 320 317 316 315 315 315 313 311 311 314 311 310 309 308 308 307 305 304 303 303 303 303 304 303 303 304 304 304 303 303 302 301
314 316 319 320 320 326 327 328 328 328 328 327 328 329 328 328 328 327 326 323 321 319 319 318 317 315 314 312 311 309 308 309 308 307 307 307 306 305 304 304 304 303 303 304 303 303 303 303 303 302 302 301 300 300
314 316 317 317 319 322 324 325 325 326 327 327 327 329 328 326 326 326 323 322 320 316 316 315 314 310 308 306 304 304 305 306 306 305 305 304 303 304 304 304 304 303 303 303 303 303 303 303 302 302 301 301 301 301
319 319 319 320 321 320 321 321 323 325 326 328 327 326 326 326 328 327 325 318 313 312 308 306 306 306 306 305 303 304 303 303 303 302 302 302 302 302 303 303 303 302 303 303 303 303 302 302 302 301 301 301 301 301
320 320 320 321 320 319 319 322 322 327 328 327 328 325 326 326 326 324 319 313 309 307 307 308 306 306 303 304 304 304 303 304 304 306 305 304 303 302 302 302 302 302 302 302 302 302 301 302 302 302 301 301 301 300
321 319 321 320 320 319 318 318 321 326 325 324 325 326 327 327 320 312 312 310 309 310 310 307 307 305 305 305 305 304 304 304 305 306 306 305 304 302 302 302 303 303 302 302 302 301 300 300 300 301 301 301 301 300
318 318 319 320 320 319 319 320 321 323 323 324 325 327 328 326 319 310 309 313 312 309 307 306 304 306 307 307 306 306 306 304 305 305 305 305 304 302 301 301 302 302 302 302 302 302 302 302 302 302 301 301 300 300
319 319 318 318 318 321 323 325 327 326 326 327 327 326 326 325 325 321 312 312 313 310 308 306 306 308 308 310 308 306 305 306 305 304 304 303 304 303 302 302 302 301 301 302 302 302 302 302 302 302 302 302 301 301
319 318 317 317 318 324 327 327 327 328 327 328 326 325 325 324 324 319 316 313 311 312 313 309 310 310 307 307 307 308 307 307 307 304 303 303 303 303 302 302 301 301 301 302 302 302 302 302 302 302 302 302 301 301

GFSWCAN_925_thetae_102.txt.gz
Theta_e
314 313 313 312 312 312 314 318 320 318 306 306 310 311 311 311 312 313 322 319 320 324 323 320 318 319 319 318 318 321 320 319 318 318 318 322 325 325 327 322 323 323 321 321 319 319 320 322 321 321 327 324 324 325
314 314 314 314 312 311 312 317 320 318 306 306 308 312 312 313 313 315 321 319 318 321 322 320 318 318 317 317 318 318 320 321 320 320 321 323 325 323 324 326 319 322 322 324 324 325 323 321 323 323 323 324 324 324
312 312 312 313 314 311 311 315 320 318 306 306 306 311 312 312 312 313 319 320 319 322 321 321 322 320 319 318 317 319 320 321 322 320 320 320 323 320 322 322 321 320 318 321 322 323 322 321 320 321 321 321 319 319
311 311 313 312 311 311 311 315 319 317 306 306 306 307 311 312 313 317 321 319 319 321 323 323 320 319 318 318 318 318 319 320 319 319 317 317 318 318 319 320 321 319 320 320 320 320 319 318 318 318 317 318 317 316
313 312 312 312 311 310 311 316 317 316 306 306 306 307 310 311 313 318 320 320 320 324 323 322 320 319 319 319 319 318 318 319 319 320 320 321 322 322 319 319 321 320 320 326 322 319 319 319 318 317 317 316 315 315
313 312 311 311 311 311 312 315 317 311 305 306 306 307 310 311 312 318 325 320 319 320 327 322 320 319 319 319 319 319 319 320 321 327 322 320 319 320 324 325 318 319 318 320 319 319 319 317 318 317 317 316 315 314
311 311 310 311 311 311 314 316 317 306 306 306 308 309 311 313 317 320 323 319 316 319 325 322 322 319 319 319 319 319 318 318 318 318 319 317 316 317 320 322 319 319 319 319 318 319 319 317 317 316 316 316 315 314
310 310 310 311 311 312 315 317 310 306 306 307 310 311 312 315 316 320 317 316 319 324 323 323 322 321 319 320 321 320 322 317 317 316 315 316 314 314 316 317 317 317 318 317 316 317 317 316 316 314 313 313 313 313
310 310 310 310 311 314 316 313 305 306 308 310 312 312 316 317 322 320 313 314 320 323 327 322 322 326 319 319 318 318 319 319 316 319 317 316 319 318 316 318 318 318 317 317 316 315 316 316 316 315 314 313 313 313
309 309 309 310 313 315 314 305 306 309 311 312 315 321 324 322 317 315 318 323 324 322 320 322 320 320 320 320 319 318 317 319 322 318 317 316 320 317 318 317 315 316 318 316 316 316 316 315 315 316 314 314 314 313
311 311 312 313 315 312 305 306 309 312 313 318 323 323 321 316 321 322 323 322 320 321 320 321 320 321 319 319 319 320 319 317 320 319 317 318 319 319 316 314 314 317 316 316 316 316 316 317 316 316 316 314 314 314
314 314 314 314 309 305 305 306 311 314 318 318 321 321 320 323 323 326 325 322 320 322 320 321 322 319 320 317 318 317 317 317 318 317 317 321 318 320 315 314 313 314 313 314 314 314 313 313 313 313 314 314 313 315
313 313 314 309 304 305 305 306 308 311 317 320 322 323 323 324 325 327 324 322 323 320 321 321 321 321 320 317 317 318 317 317 316 316 326 318 320 318 316 314 314 313 313 313 313 312 312 313 313 313 314 313 311 313
305 305 305 304 304 305 305 306 306 312 317 323 325 323 326 327 327 327 322 323 323 320 321 322 321 321 319 320 318 319 318 316 317 322 320 318 320 318 316 314 313 314 313 313 312 312 311 311 311 312 312 312 311 310
308 308 307 306 306 305 305 306 307 315 320 322 325 330 328 327 325 324 321 319 318 318 319 320 321 319 319 320 319 317 319 318 317 318 316 319 321 318 315 313 313 313 313 311 309 308 308 307 306 307 307 308 312 308
311 313 310 308 308 308 307 308 313 318 319 320 323 329 328 327 325 323 320 321 318 319 319 319 321 320 321 319 319 317 317 316 313 315 317 321 320 317 316 314 313 312 311 309 308 307 306 307 307 307 307 307 307 309
314 316 309 308 310 311 313 316 318 319 320 322 324 324 325 325 325 325 322 320 319 319 323 323 319 318 317 315 315 315 315 315 315 314 320 324 320 317 314 313 312 311 309 308 307 307 307 307 307 308 308 308 308 307
315 314 310 309 312 312 316 314 319 320 322 323 325 326 326 324 324 326 321 320 319 319 321 320 321 322 320 318 318 318 320 319 316 316 319 321 319 314 312 312 311 309 308 307 307 307 307 308 308 309 309 309 308 308
308 310 312 309 312 315 320 320 318 323 327 325 325 325 322 323 323 324 323 321 320 319 321 322 321 322 322 323 325 322 319 319 314 317 320 319 316 315 313 311 309 309 308 308 307 307 308 308 307 307 308 309 309 307
307 309 309 308 308 317 321 323 322 325 329 328 327 328 325 324 324 323 322 323 323 323 323 323 323 323 326 324 324 322 321 319 313 313 318 318 315 314 311 310 309 308 308 309 308 306 307 308 309 309 309 309 308 307
310 315 312 310 315 316 319 323 328 327 329 331 327 327 326 325 325 325 324 324 324 325 325 327 327 325 323 322 321 321 314 313 317 314 317 317 315 314 312 310 309 307 307 307 308 307 306 308 308 308 308 307 307 308
315 313 316 314 317 319 321 319 322 327 329 330 328 329 327 328 328 329 329 329 329 329 327 329 328 328 325 328 322 316 313 313 315 315 313 313 314 314 312 310 309 307 307 307 307 307 306 306 306 306 305 306 306 304
312 312 316 318 320 322 323 321 325 326 328 329 328 329 328 330 329 331 331 329 329 328 326 327 329 325 325 320 317 315 312 316 318 316 315 313 313 312 310 309 307 307 307 307 306 307 307 304 305 306 305 305 305 304
312 315 320 321 322 322 323 327 326 326 327 329 330 330 329 331 331 329 329 331 325 324 329 328 325 322 319 318 315 314 314 314 316 314 314 313 313 311 310 308 307 306 307 306 306 306 306 306 304 304 305 305 305 304
318 317 319 318 321 323 324 326 327 328 330 329 327 326 331 329 330 331 331 329 326 327 325 324 322 321 317 317 314 315 314 314 315 315 313 311 311 311 309 308 307 306 305 306 306 305 306 306 305 306 305 306 305 305
319 318 320 321 321 321 323 325 326 328 328 329 328 329 330 332 330 329 330 323 323 327 324 323 322 319 317 314 317 315 315 313 312 312 311 310 310 310 310 309 308 307 305 306 306 305 305 305 305 305 305 304 301 300
317 319 320 319 320 322 322 322 324 326 327 328 329 330 327 331 329 333 327 328 324 322 320 320 319 317 316 314 313 314 312 310 310 310 309 309 309 308 308 308 308 307 306 306 306 305 305 305 305 304 304 304 304 304
320 321 322 321 321 319 318 319 321 323 324 328 327 329 328 329 332 328 326 321 317 315 315 314 314 314 314 315 314 310 309 308 307 307 307 307 307 307 307 307 305 305 306 305 306 305 305 305 305 305 305 304 304 304
321 321 322 324 323 323 322 321 321 322 326 325 330 329 328 330 326 323 321 317 315 315 314 314 313 313 312 310 309 308 307 307 307 308 308 308 307 307 306 306 305 304 305 304 303 304 303 303 304 304 304 304 304 303
320 320 322 323 324 323 323 322 320 320 322 322 322 323 328 327 322 321 320 317 315 316 314 313 312 313 309 308 309 308 308 308 308 309 309 309 308 307 306 306 305 305 306 305 304 304 301 301 302 302 303 304 305 304
321 321 322 322 323 322 323 322 321 321 321 324 327 329 328 327 319 318 317 316 316 317 316 314 311 311 309 309 309 308 309 308 308 308 307 307 307 306 306 306 306 306 306 306 306 305 304 304 305 306 305 305 305 303
321 322 323 324 323 323 322 322 320 320 327 327 327 331 328 328 325 321 318 318 317 316 312 312 310 312 311 311 309 309 308 309 309 308 308 307 307 306 306 305 306 306 305 306 306 306 306 305 306 305 305 305 304 304
323 322 322 322 321 321 321 322 325 330 330 330 330 327 326 324 321 319 318 316 316 317 315 311 311 311 312 312 311 311 310 310 309 308 307 308 309 307 307 306 305 305 305 305 305 306 306 306 306 305 305 305 304 304